GEFSSGP_prec_meanprecacc_186.txt.gz
Total_Precipitation_Accumulation
0.00 0.00 0.00 0.00 0.01 0.04 0.10 0.14 0.15 0.24 0.30 0.29 0.30 0.35 0.37 0.46 0.59 1.19 0.72 0.29 0.19 0.09 0.06 0.05 0.06 0.08 0.10 0.11 0.14 0.16 0.17 0.16 0.15 0.14 0.13 0.14 0.15 0.15 0.14 0.16 0.19 0.23 0.25 0.23 0.22 0.22 0.21 0.18 0.15
0.00 0.00 0.00 0.01 0.02 0.08 0.13 0.14 0.21 0.26 0.26 0.25 0.28 0.31 0.28 0.30 0.28 0.26 0.35 0.25 0.18 0.11 0.09 0.04 0.05 0.06 0.07 0.08 0.11 0.15 0.17 0.16 0.15 0.14 0.13 0.14 0.14 0.16 0.17 0.19 0.25 0.31 0.35 0.36 0.30 0.26 0.23 0.20 0.15
0.00 0.00 0.00 0.00 0.03 0.11 0.17 0.18 0.24 0.24 0.22 0.27 0.32 0.39 0.40 0.34 0.30 0.27 0.31 0.21 0.18 0.14 0.10 0.06 0.06 0.07 0.06 0.07 0.09 0.14 0.16 0.16 0.16 0.19 0.18 0.16 0.16 0.18 0.21 0.25 0.29 0.34 0.37 0.35 0.31 0.28 0.27 0.21 0.16
0.00 0.01 0.00 0.01 0.03 0.10 0.19 0.22 0.27 0.26 0.23 0.24 0.25 0.44 0.50 0.41 0.40 0.36 0.32 0.25 0.20 0.17 0.12 0.09 0.09 0.09 0.08 0.08 0.09 0.13 0.17 0.19 0.20 0.22 0.22 0.21 0.21 0.21 0.27 0.34 0.38 0.37 0.36 0.37 0.37 0.35 0.29 0.22 0.17
0.01 0.01 0.00 0.01 0.02 0.09 0.22 0.27 0.30 0.28 0.25 0.25 0.32 0.54 0.68 0.61 0.56 0.53 0.44 0.36 0.30 0.24 0.20 0.15 0.15 0.14 0.13 0.12 0.12 0.16 0.21 0.25 0.31 0.35 0.32 0.28 0.27 0.28 0.34 0.41 0.44 0.43 0.46 0.45 0.42 0.35 0.27 0.20 0.18
0.01 0.01 0.00 0.01 0.05 0.11 0.17 0.24 0.23 0.27 0.29 0.29 0.42 0.79 1.07 1.07 1.02 0.88 0.78 0.53 0.42 0.31 0.33 0.28 0.22 0.21 0.21 0.20 0.19 0.24 0.30 0.35 0.39 0.41 0.35 0.32 0.31 0.33 0.38 0.41 0.41 0.44 0.45 0.41 0.32 0.26 0.21 0.21 0.21
0.00 0.00 0.01 0.02 0.07 0.13 0.17 0.21 0.22 0.29 0.32 0.34 0.52 0.77 1.04 1.22 1.30 1.22 1.07 0.82 0.73 0.59 0.60 0.50 0.37 0.34 0.33 0.35 0.35 0.32 0.31 0.34 0.39 0.43 0.36 0.32 0.32 0.32 0.33 0.34 0.37 0.36 0.31 0.28 0.26 0.23 0.20 0.19 0.18
0.00 0.00 0.01 0.03 0.08 0.12 0.23 0.27 0.30 0.36 0.38 0.40 0.65 0.89 1.20 1.25 1.13 1.28 1.24 1.07 1.07 1.04 0.98 0.65 0.47 0.49 0.55 0.54 0.49 0.45 0.40 0.41 0.41 0.39 0.38 0.34 0.32 0.32 0.34 0.32 0.34 0.34 0.33 0.30 0.27 0.24 0.24 0.23 0.22
0.00 0.00 0.01 0.03 0.08 0.13 0.21 0.31 0.33 0.28 0.33 0.45 0.67 0.85 1.01 1.02 1.01 1.28 1.35 1.41 1.45 1.26 1.06 0.90 0.71 0.67 0.69 0.65 0.55 0.53 0.51 0.50 0.49 0.48 0.44 0.42 0.43 0.48 0.49 0.42 0.44 0.42 0.42 0.37 0.35 0.34 0.33 0.30 0.27
0.01 0.00 0.01 0.03 0.05 0.12 0.22 0.31 0.28 0.31 0.34 0.48 0.61 0.82 1.01 0.98 1.16 1.32 1.43 1.69 1.54 1.41 1.25 1.15 1.04 0.92 0.86 0.72 0.75 0.74 0.69 0.69 0.63 0.72 0.65 0.69 0.86 0.93 0.83 0.91 0.79 0.67 0.58 0.54 0.55 0.54 0.45 0.38 0.37
0.01 0.01 0.04 0.05 0.06 0.10 0.20 0.31 0.31 0.39 0.53 0.81 0.92 0.92 0.92 0.95 1.17 1.42 1.68 1.99 1.96 1.68 1.39 1.32 1.33 1.35 1.30 1.26 1.13 1.00 1.01 1.04 0.95 1.04 0.97 1.08 1.19 1.13 1.15 1.27 1.10 0.96 0.84 0.80 0.87 0.72 0.57 0.56 0.64
0.01 0.04 0.08 0.08 0.12 0.17 0.26 0.40 0.57 0.62 0.73 0.90 0.98 0.95 1.01 1.05 1.22 1.46 1.72 1.97 2.14 2.03 1.78 1.79 1.65 1.59 1.65 1.79 1.70 1.34 1.26 1.25 1.15 1.30 1.28 1.43 1.59 1.59 1.66 1.69 1.48 1.42 1.37 1.35 1.25 1.14 0.98 0.88 0.85
0.01 0.04 0.09 0.08 0.14 0.24 0.36 0.43 0.55 0.53 0.43 0.59 0.76 0.93 1.09 1.02 1.19 1.39 1.72 2.21 2.46 2.42 2.25 2.22 2.09 1.99 2.05 2.21 2.18 1.70 1.59 1.71 1.89 1.99 1.83 1.77 1.76 1.82 1.98 1.93 1.85 1.79 1.87 1.79 1.64 1.44 1.44 1.41 1.23
0.01 0.03 0.05 0.09 0.14 0.18 0.26 0.29 0.41 0.56 0.52 0.58 0.66 0.80 1.03 1.25 1.52 1.75 1.99 2.41 2.70 2.78 2.64 2.56 2.45 2.38 2.35 2.41 2.36 2.32 2.08 2.14 2.32 2.43 2.36 2.16 2.12 2.26 2.42 2.41 2.29 2.08 2.09 2.04 1.92 1.82 1.85 1.77 1.69
0.02 0.03 0.05 0.09 0.15 0.17 0.19 0.33 0.47 0.56 0.61 0.65 0.67 0.78 1.01 1.29 1.54 1.80 2.24 2.51 2.60 2.63 2.58 2.65 2.53 2.59 2.66 2.69 2.54 2.64 2.66 2.70 2.80 2.82 2.67 2.44 2.40 2.71 2.77 2.81 2.58 2.39 2.35 2.41 2.32 2.23 2.20 1.96 1.85
0.04 0.04 0.08 0.13 0.16 0.21 0.18 0.36 0.51 0.41 0.45 0.55 0.70 0.85 0.95 1.10 1.42 1.74 2.08 2.35 2.51 2.83 2.90 2.90 2.85 2.83 2.85 2.93 2.91 2.92 2.91 3.18 3.19 3.19 3.13 2.87 2.74 2.86 2.97 2.97 2.85 2.70 2.57 2.73 2.84 2.75 2.63 2.44 2.39
0.06 0.07 0.10 0.15 0.17 0.19 0.20 0.32 0.44 0.39 0.40 0.55 0.84 1.07 1.05 1.14 1.48 1.86 2.16 2.43 2.59 2.76 3.04 3.02 2.97 3.07 3.09 3.16 3.07 3.23 3.42 3.46 3.34 3.32 3.37 3.28 3.16 3.23 3.27 3.21 3.22 3.18 3.16 3.14 2.98 3.06 2.93 2.92 2.83
0.08 0.09 0.11 0.15 0.18 0.17 0.21 0.33 0.45 0.46 0.54 0.72 0.85 0.98 1.09 1.16 1.30 1.62 2.07 2.54 2.73 2.78 2.79 2.95 2.96 3.07 3.12 3.34 3.36 3.42 3.57 3.71 3.83 3.99 4.05 3.83 3.76 3.66 3.80 3.74 3.66 3.65 3.60 3.42 3.38 3.36 3.18 3.01 2.91
0.06 0.09 0.10 0.13 0.16 0.19 0.25 0.35 0.49 0.61 0.71 0.73 0.69 0.72 0.81 1.11 1.32 1.66 2.03 2.35 2.86 2.92 2.83 2.93 3.13 3.29 3.38 3.63 3.71 3.89 4.20 4.39 4.54 4.61 4.50 4.43 4.28 4.34 4.36 4.21 3.98 3.87 3.88 3.80 3.75 3.57 3.38 3.14 2.99
0.07 0.13 0.15 0.14 0.15 0.22 0.35 0.46 0.59 0.69 0.72 0.69 0.76 0.90 1.02 1.32 1.62 1.84 2.07 2.45 2.86 3.07 3.14 3.19 3.43 3.73 3.97 4.20 4.61 4.91 5.13 5.31 5.48 5.53 5.09 4.85 4.71 4.64 4.60 4.61 4.54 4.32 4.14 3.96 3.78 3.70 3.53 3.19 3.04
0.06 0.10 0.15 0.15 0.15 0.21 0.38 0.61 0.75 0.81 0.85 0.93 1.14 1.37 1.47 1.53 1.84 1.96 2.10 2.46 2.79 2.99 3.12 3.27 3.52 3.98 4.55 4.92 5.32 5.72 5.87 5.88 5.71 5.46 5.33 5.17 5.04 4.92 4.77 4.62 4.40 4.25 4.14 4.00 3.80 3.60 3.47 3.24 3.07
0.05 0.06 0.11 0.11 0.11 0.20 0.34 0.66 0.96 1.00 1.08 1.30 1.49 1.46 1.52 1.68 1.91 2.06 2.23 2.47 2.78 3.00 3.10 3.43 3.94 4.59 5.16 5.63 6.11 6.58 6.72 6.53 6.21 5.77 5.36 5.08 4.81 4.50 4.26 4.13 4.05 3.90 3.62 3.39 3.24 3.14 2.99 2.86 2.73
0.05 0.05 0.09 0.10 0.07 0.15 0.27 0.52 1.11 1.26 1.34 1.60 1.85 1.62 1.54 1.56 1.64 1.89 2.04 2.21 2.59 2.79 2.98 3.34 3.93 4.63 5.33 6.15 6.82 7.20 7.10 6.80 6.39 5.71 5.12 4.63 4.23 3.89 3.63 3.51 3.33 3.12 2.78 2.45 2.35 2.42 2.49 2.46 2.39
0.05 0.05 0.07 0.09 0.09 0.18 0.21 0.44 1.07 1.49 1.65 1.80 1.78 1.60 1.52 1.43 1.38 1.45 1.52 1.79 2.15 2.45 2.72 3.11 3.72 4.46 5.13 5.75 6.26 6.43 6.36 6.20 5.71 5.03 4.42 4.02 3.68 3.34 2.96 2.64 2.35 2.12 1.95 1.75 1.71 1.75 1.87 2.05 2.14
0.06 0.07 0.20 0.31 0.33 0.31 0.27 0.50 1.07 1.42 1.59 1.55 1.50 1.51 1.36 1.30 1.26 1.24 1.28 1.49 1.82 2.06 2.44 2.84 3.28 3.90 4.33 4.65 5.05 5.20 5.23 5.06 4.77 4.33 3.89 3.46 2.98 2.63 2.33 2.03 1.85 1.69 1.59 1.52 1.47 1.45 1.46 1.56 1.71
0.07 0.07 0.26 0.45 0.42 0.44 0.47 0.82 1.32 1.39 1.41 1.34 1.29 1.30 1.28 1.25 1.23 1.25 1.32 1.46 1.71 1.86 2.06 2.27 2.58 2.93 3.05 3.09 3.30 3.52 3.57 3.56 3.47 3.21 2.93 2.63 2.28 1.91 1.63 1.42 1.27 1.19 1.19 1.19 1.24 1.27 1.27 1.29 1.37
0.06 0.06 0.12 0.23 0.25 0.48 0.78 1.16 1.62 1.56 1.50 1.45 1.44 1.29 1.20 1.15 1.14 1.24 1.30 1.29 1.33 1.42 1.49 1.58 1.72 1.87 1.92 1.97 2.01 2.12 2.21 2.24 2.19 2.05 1.82 1.61 1.44 1.23 1.06 0.95 0.92 0.88 0.86 0.89 0.90 0.95 1.03 1.11 1.16
0.06 0.08 0.12 0.23 0.46 0.70 0.96 1.42 2.04 2.10 1.79 1.52 1.33 1.11 1.01 1.02 1.08 1.18 1.23 1.17 1.14 1.12 1.18 1.24 1.28 1.33 1.38 1.42 1.40 1.41 1.44 1.43 1.37 1.28 1.21 1.08 0.97 0.88 0.80 0.72 0.67 0.62 0.60 0.61 0.65 0.69 0.73 0.81 0.90
0.11 0.14 0.18 0.24 0.32 0.67 1.12 1.79 2.07 2.29 2.16 1.73 1.39 1.21 1.10 1.03 1.02 1.08 1.06 0.98 0.94 0.92 0.94 1.00 1.02 1.02 1.04 1.06 1.06 1.06 1.01 0.97 0.95 0.94 0.91 0.81 0.71 0.62 0.56 0.50 0.47 0.46 0.47 0.51 0.57 0.62 0.64 0.67 0.72
0.13 0.16 0.23 0.46 0.50 0.53 1.05 1.97 2.02 2.32 2.38 2.08 1.79 1.61 1.50 1.23 1.10 1.09 1.01 0.91 0.82 0.81 0.80 0.82 0.82 0.84 0.88 0.85 0.82 0.83 0.76 0.70 0.70 0.69 0.63 0.57 0.53 0.48 0.43 0.39 0.38 0.40 0.41 0.43 0.44 0.48 0.52 0.58 0.63

GEFSSGP_prec_meanprecacc_192.txt.gz
Total_Precipitation_Accumulation
0.00 0.00 0.00 0.01 0.02 0.05 0.13 0.18 0.21 0.29 0.34 0.33 0.33 0.40 0.44 0.49 0.62 1.22 0.74 0.31 0.20 0.10 0.06 0.05 0.06 0.08 0.10 0.11 0.14 0.16 0.17 0.16 0.15 0.14 0.14 0.14 0.15 0.15 0.15 0.16 0.19 0.23 0.25 0.24 0.23 0.23 0.23 0.20 0.16
0.00 0.00 0.01 0.02 0.03 0.10 0.17 0.19 0.26 0.32 0.30 0.29 0.33 0.37 0.35 0.33 0.29 0.28 0.37 0.28 0.20 0.12 0.09 0.05 0.05 0.06 0.08 0.09 0.11 0.15 0.17 0.16 0.15 0.14 0.14 0.14 0.15 0.16 0.18 0.20 0.25 0.32 0.35 0.36 0.31 0.26 0.24 0.21 0.16
0.00 0.01 0.01 0.02 0.05 0.14 0.20 0.22 0.28 0.29 0.27 0.30 0.36 0.44 0.47 0.38 0.32 0.29 0.33 0.23 0.22 0.17 0.11 0.08 0.07 0.07 0.06 0.07 0.10 0.14 0.16 0.16 0.17 0.19 0.18 0.16 0.16 0.18 0.22 0.26 0.30 0.35 0.37 0.36 0.32 0.29 0.27 0.22 0.17
0.00 0.01 0.01 0.02 0.05 0.13 0.23 0.27 0.31 0.33 0.28 0.28 0.31 0.48 0.53 0.42 0.41 0.38 0.36 0.31 0.24 0.21 0.15 0.11 0.10 0.10 0.09 0.08 0.09 0.13 0.17 0.20 0.20 0.22 0.23 0.22 0.21 0.22 0.28 0.35 0.39 0.37 0.37 0.38 0.37 0.36 0.30 0.23 0.17
0.01 0.01 0.01 0.02 0.05 0.13 0.27 0.31 0.34 0.32 0.28 0.27 0.34 0.56 0.70 0.63 0.58 0.55 0.47 0.40 0.32 0.26 0.25 0.18 0.16 0.17 0.16 0.13 0.13 0.16 0.21 0.26 0.32 0.35 0.33 0.28 0.28 0.29 0.35 0.42 0.45 0.44 0.47 0.46 0.43 0.36 0.29 0.21 0.19
0.01 0.01 0.01 0.02 0.07 0.15 0.22 0.29 0.29 0.32 0.34 0.31 0.43 0.81 1.11 1.11 1.04 0.91 0.80 0.54 0.43 0.34 0.37 0.31 0.25 0.23 0.22 0.21 0.20 0.25 0.31 0.35 0.40 0.42 0.36 0.33 0.32 0.34 0.39 0.42 0.43 0.46 0.47 0.41 0.33 0.27 0.22 0.22 0.22
0.00 0.01 0.02 0.03 0.08 0.15 0.20 0.27 0.29 0.35 0.39 0.42 0.58 0.82 1.10 1.26 1.33 1.25 1.09 0.83 0.76 0.66 0.66 0.55 0.40 0.35 0.34 0.37 0.38 0.35 0.34 0.36 0.40 0.44 0.37 0.33 0.33 0.33 0.34 0.36 0.38 0.38 0.33 0.30 0.28 0.24 0.21 0.20 0.19
0.00 0.00 0.01 0.04 0.11 0.16 0.27 0.38 0.35 0.39 0.48 0.55 0.76 0.97 1.28 1.29 1.15 1.30 1.26 1.11 1.13 1.16 1.11 0.72 0.52 0.53 0.60 0.61 0.56 0.49 0.43 0.43 0.42 0.41 0.40 0.35 0.33 0.33 0.35 0.33 0.35 0.36 0.34 0.32 0.29 0.26 0.26 0.25 0.23
0.00 0.00 0.01 0.05 0.15 0.19 0.23 0.36 0.36 0.30 0.37 0.55 0.78 0.92 1.06 1.05 1.04 1.31 1.39 1.47 1.58 1.40 1.18 0.99 0.79 0.74 0.74 0.71 0.61 0.61 0.57 0.53 0.52 0.50 0.48 0.45 0.45 0.50 0.51 0.43 0.47 0.45 0.44 0.39 0.38 0.37 0.35 0.32 0.28
0.01 0.01 0.02 0.06 0.11 0.18 0.25 0.33 0.30 0.33 0.37 0.51 0.65 0.87 1.05 1.01 1.20 1.35 1.47 1.74 1.63 1.58 1.40 1.27 1.15 0.99 0.89 0.75 0.79 0.78 0.72 0.72 0.67 0.76 0.71 0.73 0.89 0.95 0.85 0.93 0.81 0.69 0.61 0.56 0.58 0.57 0.47 0.40 0.37
0.01 0.02 0.05 0.08 0.09 0.15 0.23 0.33 0.33 0.42 0.56 0.84 0.96 0.96 0.96 0.99 1.21 1.45 1.71 2.03 2.00 1.79 1.51 1.47 1.44 1.40 1.33 1.29 1.16 1.03 1.03 1.08 1.01 1.11 1.03 1.11 1.22 1.17 1.18 1.29 1.12 0.98 0.86 0.82 0.90 0.76 0.60 0.59 0.66
0.02 0.04 0.10 0.10 0.14 0.20 0.28 0.41 0.58 0.64 0.74 0.93 1.02 1.00 1.05 1.09 1.25 1.48 1.75 2.03 2.20 2.10 1.92 1.94 1.71 1.63 1.68 1.83 1.73 1.36 1.28 1.27 1.19 1.37 1.34 1.47 1.62 1.63 1.70 1.72 1.52 1.45 1.40 1.38 1.28 1.18 1.01 0.91 0.87
0.02 0.05 0.10 0.09 0.17 0.26 0.37 0.44 0.56 0.53 0.44 0.64 0.82 0.98 1.12 1.05 1.21 1.42 1.75 2.25 2.53 2.50 2.36 2.35 2.17 2.05 2.10 2.30 2.28 1.75 1.61 1.74 1.92 2.01 1.87 1.83 1.82 1.88 2.03 1.98 1.90 1.84 1.92 1.84 1.69 1.49 1.50 1.46 1.28
0.02 0.04 0.06 0.10 0.16 0.20 0.28 0.30 0.42 0.57 0.53 0.60 0.71 0.86 1.07 1.29 1.55 1.78 2.03 2.46 2.76 2.86 2.74 2.67 2.56 2.48 2.43 2.51 2.50 2.43 2.14 2.18 2.36 2.46 2.41 2.21 2.18 2.32 2.48 2.48 2.34 2.14 2.14 2.08 1.98 1.89 1.93 1.86 1.78
0.03 0.03 0.06 0.11 0.17 0.19 0.20 0.35 0.48 0.58 0.62 0.67 0.72 0.83 1.06 1.38 1.63 1.88 2.31 2.58 2.67 2.70 2.67 2.76 2.69 2.75 2.79 2.82 2.70 2.74 2.73 2.75 2.85 2.88 2.72 2.50 2.46 2.77 2.83 2.86 2.64 2.45 2.41 2.49 2.41 2.32 2.30 2.07 1.97
0.06 0.06 0.09 0.14 0.17 0.22 0.19 0.39 0.54 0.43 0.47 0.57 0.72 0.88 1.00 1.19 1.54 1.88 2.25 2.47 2.61 2.94 3.00 3.01 3.00 3.02 3.05 3.09 3.01 2.99 2.97 3.23 3.24 3.25 3.19 2.92 2.82 2.95 3.04 3.05 2.92 2.76 2.66 2.85 2.98 2.91 2.82 2.64 2.57
0.07 0.09 0.12 0.16 0.18 0.20 0.22 0.39 0.49 0.42 0.41 0.57 0.91 1.14 1.12 1.22 1.61 2.02 2.35 2.61 2.73 2.89 3.15 3.12 3.10 3.27 3.30 3.33 3.19 3.32 3.48 3.52 3.40 3.38 3.43 3.35 3.25 3.32 3.37 3.30 3.29 3.25 3.26 3.25 3.09 3.19 3.08 3.08 2.98
0.09 0.10 0.13 0.17 0.20 0.18 0.22 0.39 0.52 0.51 0.57 0.75 0.96 1.12 1.21 1.26 1.43 1.78 2.22 2.67 2.84 2.87 2.88 3.02 3.04 3.17 3.28 3.52 3.54 3.59 3.69 3.80 3.92 4.08 4.14 3.91 3.85 3.75 3.90 3.85 3.76 3.77 3.73 3.53 3.48 3.47 3.31 3.14 3.02
0.08 0.11 0.13 0.16 0.18 0.21 0.26 0.36 0.53 0.65 0.75 0.79 0.83 0.89 0.93 1.21 1.46 1.79 2.11 2.43 2.93 2.96 2.87 2.98 3.19 3.34 3.44 3.73 3.83 4.05 4.36 4.51 4.63 4.69 4.60 4.55 4.44 4.49 4.49 4.30 4.06 3.93 3.94 3.87 3.85 3.68 3.48 3.22 3.06
0.09 0.15 0.19 0.19 0.17 0.23 0.37 0.48 0.62 0.74 0.76 0.73 0.83 1.02 1.14 1.46 1.79 1.96 2.14 2.51 2.92 3.11 3.18 3.24 3.48 3.78 4.02 4.26 4.68 4.97 5.21 5.40 5.57 5.60 5.18 5.00 4.89 4.76 4.66 4.66 4.58 4.36 4.18 4.01 3.84 3.77 3.60 3.26 3.12
0.08 0.12 0.18 0.20 0.17 0.23 0.40 0.63 0.78 0.86 0.91 1.03 1.25 1.45 1.56 1.66 1.97 2.05 2.15 2.52 2.82 3.03 3.20 3.35 3.57 4.02 4.59 4.97 5.40 5.79 5.94 5.96 5.79 5.52 5.39 5.24 5.12 4.99 4.83 4.66 4.43 4.28 4.17 4.03 3.84 3.65 3.52 3.28 3.13
0.07 0.10 0.16 0.15 0.15 0.24 0.37 0.68 1.01 1.11 1.17 1.40 1.61 1.57 1.64 1.79 2.00 2.12 2.28 2.54 2.83 3.05 3.20 3.51 4.00 4.64 5.21 5.69 6.21 6.67 6.77 6.59 6.28 5.85 5.43 5.16 4.89 4.58 4.31 4.16 4.08 3.92 3.64 3.41 3.27 3.17 3.02 2.89 2.75
0.07 0.06 0.13 0.13 0.09 0.19 0.31 0.55 1.18 1.37 1.42 1.66 1.92 1.71 1.63 1.63 1.69 1.94 2.11 2.30 2.66 2.86 3.06 3.41 4.00 4.69 5.39 6.24 6.93 7.32 7.20 6.88 6.47 5.80 5.22 4.74 4.32 3.97 3.70 3.55 3.36 3.14 2.80 2.46 2.36 2.43 2.50 2.49 2.41
0.07 0.06 0.09 0.12 0.10 0.21 0.24 0.47 1.11 1.54 1.71 1.86 1.82 1.64 1.55 1.47 1.44 1.52 1.60 1.88 2.23 2.53 2.79 3.17 3.78 4.53 5.20 5.84 6.38 6.60 6.50 6.29 5.78 5.10 4.50 4.13 3.78 3.41 3.03 2.69 2.38 2.14 1.96 1.76 1.72 1.76 1.88 2.06 2.16
0.07 0.08 0.23 0.34 0.36 0.34 0.28 0.51 1.10 1.46 1.63 1.59 1.53 1.53 1.39 1.38 1.39 1.36 1.39 1.62 1.92 2.14 2.52 2.91 3.35 3.96 4.39 4.74 5.17 5.35 5.36 5.15 4.84 4.38 3.94 3.53 3.05 2.69 2.38 2.07 1.90 1.72 1.61 1.53 1.48 1.46 1.46 1.57 1.72
0.07 0.08 0.27 0.49 0.47 0.47 0.49 0.84 1.36 1.44 1.45 1.38 1.33 1.33 1.32 1.31 1.32 1.37 1.46 1.59 1.81 1.94 2.13 2.33 2.63 2.99 3.15 3.20 3.45 3.68 3.71 3.68 3.55 3.27 2.97 2.69 2.33 1.96 1.68 1.45 1.31 1.22 1.22 1.21 1.25 1.28 1.28 1.30 1.38
0.07 0.07 0.12 0.26 0.29 0.55 0.85 1.23 1.70 1.62 1.57 1.51 1.48 1.31 1.24 1.20 1.23 1.35 1.39 1.37 1.41 1.49 1.56 1.64 1.77 1.93 2.01 2.09 2.15 2.30 2.34 2.33 2.27 2.12 1.89 1.68 1.50 1.28 1.10 0.99 0.97 0.91 0.89 0.91 0.91 0.96 1.04 1.12 1.16
0.07 0.10 0.15 0.26 0.50 0.76 1.04 1.51 2.13 2.16 1.84 1.56 1.36 1.14 1.04 1.06 1.15 1.24 1.28 1.23 1.20 1.20 1.25 1.31 1.34 1.39 1.44 1.48 1.46 1.49 1.52 1.49 1.43 1.34 1.27 1.15 1.03 0.92 0.84 0.76 0.70 0.64 0.61 0.62 0.66 0.70 0.75 0.82 0.91
0.12 0.15 0.20 0.26 0.36 0.73 1.19 1.86 2.14 2.34 2.23 1.79 1.44 1.25 1.14 1.06 1.06 1.12 1.10 1.06 1.03 1.01 1.01 1.07 1.08 1.06 1.07 1.09 1.09 1.09 1.05 1.02 1.00 1.00 0.98 0.87 0.76 0.66 0.59 0.53 0.49 0.48 0.48 0.51 0.58 0.63 0.66 0.68 0.73
0.14 0.17 0.24 0.47 0.52 0.58 1.10 2.03 2.08 2.37 2.45 2.14 1.83 1.66 1.53 1.25 1.15 1.14 1.04 0.97 0.92 0.91 0.88 0.90 0.87 0.87 0.91 0.88 0.84 0.85 0.79 0.74 0.74 0.74 0.68 0.62 0.57 0.52 0.46 0.41 0.40 0.41 0.42 0.43 0.45 0.48 0.52 0.59 0.64

GEFSSGP_prec_meanprecacc_198.txt.gz
Total_Precipitation_Accumulation
0.00 0.00 0.00 0.01 0.02 0.05 0.14 0.18 0.21 0.30 0.36 0.34 0.36 0.42 0.47 0.52 0.64 1.24 0.76 0.31 0.20 0.10 0.07 0.06 0.06 0.09 0.11 0.12 0.15 0.17 0.18 0.18 0.17 0.15 0.14 0.15 0.16 0.16 0.16 0.18 0.21 0.25 0.27 0.25 0.24 0.24 0.24 0.22 0.19
0.00 0.00 0.01 0.02 0.03 0.11 0.17 0.19 0.27 0.33 0.31 0.31 0.35 0.39 0.37 0.36 0.31 0.29 0.38 0.28 0.20 0.12 0.09 0.05 0.05 0.07 0.08 0.09 0.12 0.16 0.19 0.20 0.18 0.15 0.15 0.15 0.16 0.18 0.19 0.22 0.27 0.34 0.37 0.38 0.33 0.28 0.26 0.23 0.19
0.01 0.01 0.01 0.02 0.05 0.14 0.20 0.22 0.29 0.31 0.28 0.33 0.38 0.46 0.49 0.40 0.33 0.30 0.34 0.24 0.23 0.18 0.11 0.08 0.07 0.07 0.07 0.08 0.11 0.16 0.22 0.29 0.26 0.22 0.20 0.17 0.17 0.19 0.23 0.27 0.32 0.37 0.41 0.39 0.35 0.32 0.30 0.25 0.20
0.01 0.01 0.01 0.02 0.05 0.13 0.24 0.28 0.35 0.36 0.31 0.30 0.33 0.50 0.55 0.44 0.42 0.39 0.37 0.33 0.25 0.22 0.18 0.13 0.11 0.11 0.10 0.11 0.12 0.17 0.30 0.33 0.28 0.27 0.24 0.23 0.22 0.23 0.29 0.36 0.40 0.40 0.40 0.41 0.40 0.38 0.32 0.25 0.19
0.01 0.01 0.01 0.02 0.05 0.14 0.28 0.34 0.42 0.41 0.32 0.29 0.35 0.59 0.72 0.65 0.58 0.55 0.48 0.41 0.33 0.27 0.27 0.21 0.18 0.18 0.17 0.16 0.16 0.21 0.28 0.30 0.34 0.37 0.34 0.29 0.28 0.30 0.35 0.43 0.46 0.45 0.48 0.48 0.45 0.39 0.31 0.23 0.21
0.01 0.01 0.01 0.02 0.07 0.15 0.23 0.31 0.35 0.38 0.36 0.33 0.46 0.84 1.13 1.12 1.05 0.91 0.81 0.54 0.43 0.34 0.40 0.35 0.28 0.25 0.23 0.22 0.22 0.26 0.33 0.38 0.42 0.43 0.37 0.34 0.33 0.35 0.40 0.43 0.44 0.47 0.48 0.43 0.36 0.30 0.24 0.24 0.24
0.01 0.01 0.02 0.03 0.09 0.16 0.21 0.31 0.34 0.39 0.43 0.45 0.67 0.88 1.12 1.28 1.34 1.26 1.10 0.84 0.77 0.67 0.69 0.62 0.46 0.38 0.36 0.39 0.40 0.36 0.36 0.39 0.43 0.46 0.39 0.34 0.34 0.34 0.35 0.37 0.39 0.39 0.34 0.31 0.29 0.26 0.23 0.22 0.21
0.01 0.01 0.01 0.04 0.11 0.16 0.28 0.42 0.41 0.45 0.51 0.58 0.82 1.01 1.30 1.31 1.17 1.31 1.27 1.12 1.13 1.16 1.13 0.77 0.56 0.55 0.61 0.63 0.57 0.50 0.44 0.45 0.44 0.44 0.44 0.37 0.35 0.35 0.37 0.35 0.37 0.37 0.36 0.34 0.31 0.29 0.29 0.28 0.25
0.01 0.00 0.02 0.05 0.16 0.19 0.24 0.40 0.41 0.33 0.39 0.57 0.82 0.95 1.07 1.05 1.04 1.32 1.40 1.48 1.58 1.41 1.21 1.04 0.83 0.76 0.75 0.71 0.62 0.62 0.58 0.54 0.53 0.52 0.50 0.46 0.47 0.52 0.53 0.46 0.49 0.46 0.46 0.41 0.41 0.40 0.38 0.35 0.31
0.01 0.01 0.02 0.06 0.11 0.18 0.25 0.37 0.34 0.36 0.39 0.53 0.67 0.88 1.06 1.02 1.21 1.37 1.49 1.75 1.65 1.60 1.43 1.30 1.19 1.02 0.92 0.77 0.80 0.79 0.74 0.74 0.69 0.78 0.72 0.74 0.91 0.97 0.88 0.95 0.84 0.72 0.63 0.58 0.61 0.61 0.52 0.43 0.40
0.01 0.02 0.05 0.08 0.09 0.16 0.25 0.35 0.35 0.44 0.57 0.86 0.97 0.97 0.98 1.01 1.24 1.49 1.74 2.06 2.04 1.83 1.54 1.51 1.47 1.43 1.36 1.32 1.18 1.04 1.05 1.10 1.03 1.13 1.05 1.14 1.25 1.20 1.23 1.33 1.15 1.01 0.88 0.84 0.93 0.81 0.65 0.63 0.70
0.02 0.04 0.10 0.11 0.14 0.22 0.34 0.43 0.60 0.66 0.76 0.94 1.03 1.01 1.07 1.12 1.28 1.51 1.78 2.07 2.25 2.16 1.98 1.99 1.77 1.68 1.73 1.88 1.79 1.41 1.31 1.31 1.22 1.40 1.38 1.50 1.66 1.68 1.75 1.78 1.56 1.49 1.44 1.43 1.33 1.23 1.07 0.97 0.93
0.02 0.05 0.10 0.09 0.18 0.28 0.41 0.47 0.58 0.57 0.46 0.65 0.84 1.00 1.15 1.08 1.24 1.45 1.79 2.30 2.59 2.57 2.43 2.41 2.25 2.12 2.15 2.36 2.37 1.85 1.71 1.82 1.99 2.07 1.91 1.88 1.88 1.94 2.10 2.05 1.97 1.90 1.98 1.90 1.75 1.55 1.57 1.52 1.33
0.02 0.04 0.07 0.11 0.17 0.22 0.31 0.33 0.44 0.61 0.56 0.62 0.73 0.89 1.11 1.33 1.58 1.82 2.08 2.51 2.82 2.93 2.80 2.72 2.61 2.54 2.51 2.60 2.61 2.58 2.30 2.32 2.47 2.56 2.50 2.31 2.29 2.44 2.59 2.58 2.44 2.22 2.21 2.15 2.04 1.98 2.03 1.95 1.87
0.03 0.04 0.07 0.13 0.19 0.21 0.24 0.39 0.51 0.61 0.66 0.71 0.75 0.87 1.10 1.41 1.66 1.92 2.36 2.63 2.73 2.77 2.73 2.81 2.73 2.80 2.86 2.93 2.84 2.93 2.91 2.91 2.99 3.00 2.84 2.63 2.61 2.94 3.00 2.99 2.73 2.53 2.48 2.57 2.49 2.42 2.41 2.17 2.08
0.06 0.06 0.10 0.15 0.19 0.24 0.22 0.43 0.57 0.46 0.51 0.61 0.76 0.92 1.04 1.22 1.57 1.92 2.31 2.55 2.68 3.02 3.06 3.05 3.05 3.07 3.11 3.18 3.14 3.14 3.14 3.41 3.41 3.40 3.33 3.04 2.93 3.06 3.14 3.15 3.02 2.84 2.72 2.92 3.04 2.98 2.90 2.74 2.67
0.08 0.10 0.13 0.17 0.19 0.22 0.24 0.42 0.52 0.46 0.47 0.61 0.95 1.18 1.15 1.26 1.64 2.05 2.40 2.67 2.79 2.95 3.21 3.17 3.14 3.32 3.37 3.43 3.29 3.43 3.60 3.62 3.49 3.49 3.54 3.47 3.35 3.41 3.44 3.37 3.35 3.30 3.31 3.31 3.13 3.24 3.13 3.13 3.03
0.09 0.11 0.14 0.18 0.21 0.20 0.23 0.41 0.56 0.58 0.71 0.81 0.98 1.15 1.24 1.29 1.47 1.83 2.29 2.74 2.89 2.94 2.95 3.08 3.10 3.23 3.35 3.61 3.62 3.67 3.80 3.92 4.03 4.15 4.20 3.98 3.91 3.81 3.96 3.89 3.80 3.81 3.78 3.58 3.52 3.51 3.35 3.18 3.05
0.09 0.12 0.13 0.17 0.19 0.21 0.27 0.38 0.57 0.72 0.88 0.87 0.86 0.92 0.96 1.25 1.50 1.84 2.17 2.49 3.00 3.04 2.94 3.05 3.26 3.41 3.51 3.79 3.90 4.13 4.44 4.60 4.73 4.79 4.68 4.63 4.51 4.57 4.56 4.36 4.09 3.96 3.97 3.89 3.88 3.72 3.52 3.25 3.09
0.10 0.16 0.20 0.20 0.18 0.24 0.37 0.49 0.65 0.79 0.86 0.81 0.87 1.05 1.17 1.50 1.83 1.99 2.18 2.57 3.03 3.21 3.24 3.31 3.55 3.85 4.08 4.31 4.73 5.01 5.25 5.45 5.63 5.65 5.23 5.04 4.94 4.81 4.74 4.74 4.64 4.41 4.22 4.03 3.86 3.79 3.63 3.30 3.16
0.08 0.12 0.19 0.20 0.18 0.23 0.41 0.64 0.80 0.90 0.99 1.10 1.30 1.48 1.59 1.68 1.99 2.07 2.19 2.57 2.91 3.11 3.26 3.42 3.64 4.09 4.65 5.02 5.44 5.83 5.98 5.99 5.83 5.55 5.42 5.28 5.16 5.04 4.89 4.73 4.50 4.34 4.21 4.06 3.86 3.67 3.55 3.31 3.16
0.07 0.10 0.16 0.15 0.15 0.25 0.39 0.72 1.06 1.17 1.25 1.48 1.65 1.61 1.66 1.81 2.02 2.14 2.31 2.60 2.90 3.14 3.28 3.59 4.08 4.70 5.27 5.74 6.24 6.70 6.81 6.63 6.31 5.88 5.47 5.20 4.95 4.64 4.39 4.25 4.16 4.00 3.70 3.46 3.30 3.20 3.05 2.92 2.78
0.07 0.06 0.13 0.13 0.09 0.21 0.34 0.59 1.23 1.44 1.50 1.74 1.97 1.75 1.66 1.66 1.72 1.98 2.16 2.35 2.72 2.94 3.17 3.53 4.10 4.79 5.49 6.32 6.99 7.39 7.28 6.95 6.52 5.85 5.28 4.80 4.39 4.05 3.80 3.65 3.45 3.24 2.88 2.52 2.40 2.47 2.53 2.51 2.43
0.07 0.07 0.09 0.12 0.11 0.22 0.26 0.49 1.13 1.58 1.76 1.92 1.88 1.68 1.59 1.49 1.47 1.56 1.65 1.93 2.28 2.59 2.90 3.32 3.94 4.65 5.30 5.94 6.47 6.69 6.59 6.39 5.87 5.17 4.56 4.18 3.84 3.48 3.10 2.79 2.48 2.23 2.04 1.81 1.76 1.80 1.91 2.08 2.17
0.07 0.08 0.23 0.35 0.37 0.34 0.29 0.52 1.12 1.48 1.65 1.62 1.56 1.57 1.42 1.41 1.41 1.39 1.42 1.65 1.97 2.20 2.60 3.02 3.46 4.09 4.51 4.85 5.27 5.45 5.46 5.24 4.94 4.45 4.00 3.57 3.09 2.74 2.43 2.13 1.98 1.81 1.68 1.58 1.52 1.49 1.49 1.59 1.74
0.08 0.08 0.28 0.49 0.47 0.47 0.49 0.85 1.37 1.46 1.45 1.39 1.34 1.35 1.34 1.33 1.33 1.39 1.48 1.62 1.86 2.01 2.22 2.43 2.74 3.10 3.28 3.32 3.55 3.80 3.80 3.74 3.62 3.33 3.03 2.74 2.38 2.01 1.73 1.50 1.36 1.29 1.30 1.27 1.29 1.31 1.31 1.32 1.40
0.07 0.07 0.13 0.26 0.30 0.55 0.86 1.24 1.72 1.64 1.58 1.52 1.49 1.33 1.25 1.21 1.24 1.36 1.43 1.41 1.44 1.54 1.63 1.74 1.89 2.04 2.14 2.22 2.25 2.39 2.41 2.38 2.32 2.18 1.95 1.74 1.57 1.34 1.17 1.05 1.01 0.96 0.95 0.97 0.97 1.00 1.07 1.14 1.18
0.07 0.11 0.16 0.26 0.51 0.76 1.05 1.53 2.15 2.18 1.86 1.58 1.37 1.15 1.05 1.08 1.16 1.26 1.33 1.27 1.24 1.23 1.29 1.38 1.44 1.50 1.56 1.61 1.54 1.55 1.59 1.56 1.48 1.40 1.34 1.21 1.09 0.97 0.90 0.84 0.76 0.67 0.65 0.66 0.70 0.74 0.77 0.84 0.93
0.12 0.15 0.21 0.29 0.36 0.74 1.21 1.88 2.16 2.36 2.25 1.81 1.45 1.26 1.15 1.08 1.08 1.16 1.14 1.10 1.07 1.05 1.05 1.14 1.17 1.16 1.18 1.17 1.14 1.13 1.09 1.06 1.04 1.05 1.02 0.92 0.81 0.69 0.62 0.57 0.53 0.50 0.50 0.54 0.61 0.65 0.67 0.69 0.74
0.14 0.17 0.24 0.49 0.54 0.59 1.11 2.05 2.12 2.39 2.47 2.16 1.84 1.67 1.55 1.27 1.17 1.17 1.08 1.01 0.95 0.94 0.93 0.95 0.95 0.95 1.01 0.95 0.88 0.88 0.82 0.76 0.76 0.78 0.72 0.66 0.62 0.55 0.49 0.44 0.42 0.42 0.43 0.45 0.47 0.50 0.54 0.61 0.65

GEFSSGP_prec_meanprecacc_204.txt.gz
Total_Precipitation_Accumulation
0.00 0.00 0.00 0.01 0.02 0.06 0.14 0.19 0.22 0.31 0.37 0.36 0.37 0.44 0.48 0.53 0.66 1.26 0.76 0.32 0.20 0.10 0.07 0.07 0.08 0.10 0.12 0.13 0.16 0.18 0.20 0.19 0.19 0.16 0.16 0.17 0.18 0.18 0.18 0.20 0.23 0.28 0.30 0.28 0.28 0.27 0.27 0.25 0.22
0.00 0.00 0.01 0.02 0.04 0.11 0.18 0.20 0.28 0.34 0.32 0.32 0.37 0.40 0.38 0.37 0.31 0.30 0.38 0.29 0.20 0.13 0.10 0.06 0.07 0.09 0.09 0.10 0.13 0.17 0.20 0.21 0.19 0.17 0.17 0.16 0.17 0.20 0.22 0.25 0.30 0.37 0.41 0.42 0.37 0.32 0.30 0.27 0.23
0.01 0.01 0.02 0.02 0.05 0.14 0.20 0.23 0.29 0.31 0.29 0.33 0.40 0.46 0.49 0.40 0.33 0.30 0.34 0.24 0.23 0.18 0.12 0.10 0.08 0.08 0.08 0.09 0.12 0.17 0.24 0.30 0.27 0.24 0.22 0.19 0.19 0.21 0.25 0.30 0.34 0.40 0.44 0.42 0.39 0.36 0.34 0.28 0.23
0.01 0.01 0.01 0.02 0.05 0.13 0.24 0.28 0.35 0.37 0.32 0.30 0.34 0.50 0.56 0.44 0.42 0.39 0.37 0.33 0.25 0.23 0.19 0.14 0.12 0.12 0.11 0.12 0.13 0.18 0.31 0.34 0.30 0.29 0.27 0.25 0.24 0.24 0.30 0.38 0.43 0.42 0.43 0.44 0.44 0.42 0.35 0.27 0.21
0.01 0.01 0.01 0.02 0.05 0.14 0.28 0.34 0.42 0.42 0.32 0.29 0.36 0.59 0.73 0.65 0.58 0.55 0.48 0.41 0.33 0.27 0.27 0.22 0.19 0.19 0.19 0.17 0.17 0.22 0.29 0.31 0.35 0.39 0.36 0.32 0.30 0.31 0.36 0.44 0.48 0.47 0.50 0.49 0.48 0.41 0.33 0.25 0.23
0.01 0.01 0.01 0.02 0.07 0.15 0.23 0.32 0.36 0.38 0.37 0.34 0.47 0.84 1.14 1.13 1.05 0.91 0.81 0.55 0.43 0.35 0.40 0.35 0.29 0.26 0.25 0.24 0.23 0.27 0.34 0.39 0.43 0.44 0.38 0.35 0.34 0.36 0.41 0.45 0.46 0.49 0.50 0.45 0.38 0.32 0.27 0.26 0.26
0.01 0.01 0.02 0.03 0.09 0.16 0.21 0.31 0.35 0.39 0.44 0.46 0.67 0.89 1.13 1.29 1.34 1.26 1.10 0.84 0.77 0.67 0.70 0.63 0.47 0.40 0.37 0.41 0.42 0.38 0.37 0.41 0.46 0.48 0.41 0.36 0.35 0.35 0.37 0.39 0.42 0.43 0.38 0.34 0.31 0.28 0.25 0.23 0.22
0.01 0.01 0.01 0.04 0.11 0.16 0.28 0.42 0.42 0.46 0.52 0.59 0.83 1.02 1.31 1.32 1.17 1.31 1.27 1.12 1.13 1.17 1.13 0.79 0.59 0.58 0.64 0.65 0.59 0.52 0.46 0.46 0.47 0.46 0.47 0.41 0.38 0.38 0.41 0.38 0.41 0.41 0.39 0.37 0.33 0.31 0.31 0.29 0.28
0.01 0.00 0.02 0.05 0.16 0.20 0.24 0.40 0.41 0.34 0.40 0.57 0.82 0.95 1.08 1.06 1.05 1.33 1.40 1.49 1.59 1.42 1.22 1.05 0.86 0.80 0.77 0.73 0.63 0.63 0.60 0.56 0.56 0.55 0.52 0.49 0.50 0.57 0.57 0.50 0.54 0.52 0.51 0.45 0.44 0.43 0.41 0.37 0.33
0.01 0.01 0.02 0.06 0.12 0.18 0.26 0.37 0.34 0.37 0.40 0.54 0.67 0.89 1.07 1.03 1.23 1.38 1.50 1.77 1.66 1.61 1.44 1.32 1.22 1.05 0.95 0.79 0.81 0.81 0.76 0.75 0.70 0.79 0.74 0.79 0.96 1.02 0.92 1.00 0.88 0.76 0.67 0.62 0.64 0.64 0.55 0.46 0.43
0.01 0.02 0.05 0.08 0.09 0.16 0.25 0.35 0.35 0.45 0.58 0.86 0.97 0.97 1.00 1.03 1.26 1.51 1.77 2.08 2.06 1.85 1.57 1.54 1.51 1.47 1.42 1.37 1.20 1.06 1.08 1.13 1.05 1.17 1.10 1.19 1.30 1.25 1.28 1.39 1.22 1.07 0.93 0.89 0.98 0.86 0.69 0.66 0.73
0.02 0.05 0.10 0.11 0.14 0.22 0.34 0.44 0.60 0.67 0.77 0.95 1.04 1.02 1.09 1.14 1.30 1.54 1.81 2.09 2.28 2.19 2.01 2.01 1.79 1.72 1.79 1.96 1.83 1.44 1.34 1.35 1.28 1.47 1.43 1.56 1.71 1.73 1.81 1.85 1.64 1.57 1.51 1.50 1.39 1.29 1.12 1.02 0.97
0.02 0.05 0.11 0.09 0.18 0.28 0.41 0.47 0.58 0.57 0.47 0.66 0.85 1.02 1.17 1.10 1.26 1.47 1.81 2.33 2.61 2.60 2.45 2.43 2.28 2.16 2.21 2.44 2.43 1.89 1.75 1.87 2.05 2.14 1.98 1.95 1.95 2.03 2.21 2.16 2.05 1.97 2.06 1.98 1.83 1.63 1.65 1.59 1.39
0.02 0.04 0.07 0.11 0.17 0.22 0.31 0.34 0.45 0.62 0.57 0.63 0.75 0.92 1.14 1.35 1.60 1.85 2.09 2.53 2.84 2.96 2.83 2.74 2.63 2.58 2.55 2.65 2.66 2.62 2.35 2.37 2.52 2.62 2.57 2.39 2.39 2.56 2.72 2.67 2.50 2.29 2.29 2.23 2.13 2.07 2.12 2.03 1.94
0.03 0.04 0.08 0.13 0.19 0.21 0.24 0.39 0.52 0.64 0.67 0.72 0.77 0.90 1.14 1.44 1.68 1.93 2.37 2.65 2.75 2.79 2.76 2.84 2.75 2.83 2.89 2.97 2.88 2.97 2.98 3.00 3.08 3.09 2.92 2.70 2.68 3.02 3.09 3.10 2.84 2.63 2.58 2.67 2.59 2.50 2.48 2.25 2.15
0.06 0.06 0.10 0.16 0.19 0.24 0.23 0.44 0.58 0.49 0.52 0.63 0.79 0.95 1.07 1.25 1.60 1.94 2.33 2.57 2.70 3.03 3.07 3.07 3.07 3.10 3.15 3.23 3.21 3.22 3.23 3.51 3.53 3.54 3.44 3.12 2.99 3.12 3.21 3.22 3.11 2.94 2.82 3.02 3.15 3.08 2.98 2.81 2.74
0.08 0.10 0.13 0.18 0.19 0.22 0.25 0.43 0.54 0.49 0.49 0.63 0.98 1.22 1.18 1.28 1.66 2.07 2.43 2.68 2.80 2.96 3.21 3.18 3.17 3.36 3.41 3.48 3.36 3.50 3.67 3.68 3.56 3.56 3.63 3.55 3.42 3.48 3.52 3.45 3.42 3.36 3.37 3.37 3.20 3.32 3.21 3.20 3.08
0.09 0.11 0.14 0.18 0.22 0.21 0.25 0.43 0.59 0.61 0.75 0.85 1.02 1.19 1.27 1.31 1.50 1.87 2.33 2.76 2.91 2.95 2.96 3.10 3.12 3.25 3.38 3.64 3.65 3.70 3.84 3.97 4.07 4.20 4.24 4.02 3.96 3.88 4.05 3.98 3.87 3.86 3.82 3.63 3.57 3.56 3.39 3.22 3.10
0.09 0.12 0.14 0.18 0.19 0.22 0.27 0.40 0.59 0.74 0.91 0.91 0.91 0.96 1.00 1.27 1.53 1.87 2.19 2.51 3.02 3.06 2.96 3.07 3.28 3.44 3.54 3.82 3.93 4.15 4.47 4.64 4.77 4.83 4.73 4.69 4.58 4.67 4.67 4.45 4.17 4.03 4.03 3.96 3.93 3.77 3.56 3.29 3.14
0.10 0.17 0.21 0.20 0.18 0.24 0.37 0.49 0.66 0.81 0.89 0.86 0.91 1.08 1.20 1.52 1.85 2.02 2.20 2.59 3.05 3.23 3.27 3.32 3.57 3.88 4.11 4.34 4.76 5.03 5.27 5.48 5.66 5.70 5.28 5.11 5.02 4.90 4.83 4.83 4.73 4.48 4.28 4.09 3.92 3.85 3.68 3.36 3.22
0.09 0.13 0.19 0.21 0.18 0.24 0.42 0.65 0.82 0.92 1.04 1.16 1.35 1.52 1.61 1.71 2.02 2.11 2.22 2.59 2.93 3.13 3.28 3.44 3.66 4.11 4.68 5.05 5.47 5.85 6.00 6.03 5.87 5.60 5.48 5.35 5.25 5.13 4.98 4.83 4.58 4.40 4.27 4.11 3.91 3.72 3.60 3.36 3.22
0.07 0.10 0.17 0.16 0.16 0.26 0.40 0.74 1.08 1.19 1.30 1.56 1.73 1.66 1.69 1.83 2.03 2.17 2.34 2.62 2.92 3.16 3.30 3.61 4.09 4.72 5.29 5.77 6.27 6.74 6.85 6.67 6.36 5.94 5.53 5.27 5.04 4.75 4.51 4.37 4.24 4.05 3.75 3.51 3.36 3.25 3.10 2.97 2.83
0.08 0.07 0.14 0.14 0.11 0.23 0.37 0.64 1.31 1.53 1.58 1.80 2.03 1.80 1.70 1.68 1.74 2.00 2.17 2.37 2.74 2.96 3.20 3.56 4.12 4.81 5.51 6.34 7.03 7.43 7.33 7.00 6.58 5.93 5.37 4.90 4.49 4.14 3.88 3.72 3.54 3.31 2.95 2.58 2.46 2.52 2.60 2.58 2.50
0.08 0.07 0.10 0.13 0.13 0.24 0.29 0.53 1.20 1.66 1.85 1.99 1.93 1.73 1.63 1.53 1.50 1.58 1.67 1.95 2.30 2.61 2.92 3.35 3.97 4.67 5.32 5.97 6.51 6.73 6.65 6.45 5.94 5.24 4.63 4.25 3.90 3.54 3.17 2.86 2.56 2.31 2.13 1.91 1.85 1.88 1.97 2.14 2.25
0.08 0.09 0.24 0.36 0.38 0.36 0.30 0.55 1.16 1.54 1.71 1.68 1.63 1.62 1.46 1.44 1.43 1.40 1.44 1.67 2.01 2.23 2.62 3.04 3.48 4.11 4.53 4.86 5.28 5.49 5.50 5.29 5.00 4.52 4.06 3.63 3.14 2.79 2.48 2.18 2.04 1.88 1.75 1.66 1.62 1.60 1.58 1.67 1.82
0.08 0.08 0.28 0.50 0.48 0.49 0.51 0.87 1.39 1.48 1.48 1.41 1.36 1.37 1.36 1.35 1.34 1.39 1.49 1.65 1.91 2.05 2.24 2.45 2.76 3.12 3.30 3.33 3.57 3.83 3.84 3.79 3.67 3.38 3.08 2.79 2.43 2.06 1.78 1.55 1.42 1.36 1.37 1.33 1.36 1.40 1.41 1.43 1.48
0.07 0.07 0.13 0.27 0.33 0.57 0.87 1.25 1.73 1.65 1.59 1.53 1.50 1.34 1.26 1.22 1.25 1.37 1.44 1.43 1.49 1.58 1.67 1.78 1.92 2.08 2.17 2.24 2.28 2.43 2.47 2.44 2.38 2.22 1.99 1.79 1.62 1.40 1.22 1.10 1.07 1.01 1.02 1.07 1.07 1.10 1.16 1.23 1.27
0.07 0.11 0.17 0.29 0.55 0.78 1.06 1.54 2.16 2.19 1.87 1.58 1.38 1.16 1.06 1.09 1.17 1.27 1.34 1.29 1.27 1.27 1.34 1.43 1.48 1.53 1.59 1.66 1.58 1.59 1.63 1.61 1.53 1.44 1.38 1.26 1.13 1.01 0.94 0.90 0.83 0.75 0.71 0.73 0.79 0.85 0.90 0.95 1.02
0.12 0.16 0.22 0.32 0.40 0.76 1.22 1.90 2.17 2.37 2.25 1.82 1.46 1.27 1.16 1.09 1.09 1.17 1.15 1.11 1.08 1.07 1.07 1.17 1.20 1.19 1.21 1.21 1.18 1.16 1.13 1.10 1.09 1.10 1.07 0.97 0.85 0.73 0.67 0.62 0.59 0.58 0.56 0.60 0.67 0.71 0.74 0.77 0.82
0.14 0.17 0.25 0.51 0.58 0.61 1.13 2.08 2.14 2.41 2.49 2.17 1.85 1.68 1.56 1.28 1.18 1.19 1.10 1.02 0.96 0.95 0.94 0.96 0.97 0.98 1.04 0.99 0.91 0.91 0.85 0.79 0.80 0.82 0.77 0.72 0.67 0.60 0.54 0.48 0.47 0.47 0.48 0.50 0.53 0.55 0.58 0.66 0.72

GEFSSGP_prec_meanprecacc_210.txt.gz
Total_Precipitation_Accumulation
0.00 0.00 0.00 0.01 0.03 0.07 0.17 0.21 0.26 0.36 0.39 0.37 0.38 0.46 0.53 0.56 0.70 1.33 0.81 0.32 0.20 0.10 0.09 0.08 0.10 0.12 0.14 0.15 0.19 0.21 0.21 0.21 0.20 0.17 0.17 0.18 0.19 0.20 0.19 0.22 0.31 0.36 0.36 0.32 0.31 0.31 0.31 0.28 0.24
0.00 0.01 0.01 0.02 0.05 0.14 0.21 0.24 0.30 0.35 0.32 0.32 0.37 0.42 0.41 0.39 0.36 0.36 0.41 0.29 0.20 0.13 0.10 0.07 0.09 0.10 0.11 0.12 0.14 0.19 0.21 0.22 0.20 0.18 0.18 0.18 0.20 0.22 0.24 0.26 0.32 0.40 0.45 0.46 0.40 0.35 0.33 0.29 0.25
0.01 0.01 0.02 0.02 0.06 0.17 0.23 0.24 0.30 0.32 0.29 0.33 0.40 0.47 0.50 0.43 0.37 0.33 0.35 0.24 0.24 0.19 0.13 0.11 0.09 0.09 0.10 0.10 0.13 0.19 0.25 0.31 0.28 0.25 0.23 0.21 0.20 0.22 0.26 0.31 0.36 0.42 0.46 0.45 0.41 0.39 0.36 0.31 0.26
0.01 0.01 0.02 0.02 0.08 0.16 0.25 0.29 0.35 0.37 0.32 0.31 0.34 0.51 0.57 0.46 0.45 0.40 0.37 0.33 0.25 0.24 0.22 0.16 0.13 0.13 0.13 0.14 0.15 0.19 0.32 0.35 0.31 0.31 0.29 0.27 0.26 0.25 0.31 0.39 0.44 0.43 0.45 0.46 0.47 0.45 0.38 0.30 0.24
0.01 0.02 0.02 0.02 0.07 0.16 0.29 0.34 0.43 0.42 0.32 0.29 0.37 0.61 0.74 0.67 0.60 0.57 0.49 0.41 0.34 0.29 0.32 0.24 0.20 0.21 0.21 0.18 0.18 0.23 0.30 0.32 0.36 0.40 0.38 0.34 0.31 0.32 0.38 0.46 0.49 0.49 0.52 0.53 0.51 0.45 0.35 0.28 0.27
0.01 0.01 0.02 0.04 0.10 0.19 0.24 0.32 0.36 0.38 0.37 0.35 0.48 0.86 1.16 1.16 1.07 0.93 0.82 0.56 0.45 0.36 0.42 0.36 0.30 0.27 0.27 0.26 0.25 0.29 0.36 0.41 0.45 0.46 0.39 0.36 0.35 0.37 0.43 0.47 0.49 0.52 0.53 0.48 0.41 0.35 0.30 0.29 0.29
0.01 0.01 0.02 0.05 0.13 0.19 0.23 0.34 0.37 0.40 0.44 0.49 0.69 0.92 1.20 1.34 1.37 1.28 1.12 0.85 0.79 0.69 0.71 0.64 0.48 0.41 0.39 0.43 0.44 0.40 0.39 0.43 0.47 0.50 0.43 0.37 0.37 0.37 0.39 0.42 0.45 0.45 0.41 0.37 0.35 0.32 0.28 0.26 0.25
0.01 0.01 0.02 0.07 0.15 0.19 0.29 0.43 0.43 0.46 0.52 0.62 0.85 1.06 1.37 1.38 1.19 1.33 1.29 1.14 1.15 1.18 1.14 0.80 0.61 0.60 0.67 0.67 0.61 0.53 0.48 0.48 0.48 0.48 0.49 0.44 0.41 0.41 0.43 0.41 0.43 0.44 0.42 0.40 0.37 0.34 0.34 0.33 0.31
0.01 0.01 0.03 0.07 0.18 0.23 0.25 0.40 0.41 0.35 0.41 0.59 0.85 0.97 1.12 1.09 1.07 1.34 1.43 1.52 1.61 1.43 1.23 1.07 0.88 0.83 0.82 0.77 0.66 0.66 0.62 0.59 0.58 0.57 0.55 0.53 0.54 0.62 0.64 0.54 0.57 0.55 0.54 0.49 0.48 0.47 0.45 0.41 0.37
0.01 0.02 0.04 0.08 0.14 0.21 0.26 0.37 0.35 0.38 0.42 0.55 0.69 0.90 1.08 1.05 1.24 1.40 1.53 1.81 1.70 1.64 1.47 1.35 1.24 1.08 1.00 0.85 0.87 0.86 0.80 0.79 0.74 0.84 0.80 0.85 1.03 1.11 1.02 1.08 0.96 0.83 0.73 0.67 0.68 0.68 0.59 0.50 0.46
0.03 0.03 0.06 0.11 0.11 0.18 0.27 0.35 0.35 0.46 0.60 0.88 0.98 0.98 1.00 1.04 1.27 1.53 1.79 2.12 2.11 1.89 1.60 1.56 1.54 1.50 1.46 1.43 1.27 1.15 1.15 1.19 1.12 1.25 1.19 1.29 1.39 1.35 1.38 1.49 1.31 1.15 1.00 0.95 1.03 0.90 0.72 0.69 0.76
0.05 0.06 0.11 0.11 0.15 0.23 0.36 0.44 0.61 0.68 0.78 0.98 1.06 1.03 1.10 1.15 1.33 1.56 1.84 2.13 2.33 2.24 2.04 2.04 1.82 1.75 1.82 2.01 1.90 1.53 1.43 1.43 1.36 1.57 1.53 1.67 1.82 1.82 1.91 1.95 1.73 1.66 1.61 1.58 1.45 1.34 1.16 1.05 1.00
0.04 0.06 0.11 0.10 0.18 0.30 0.44 0.48 0.59 0.59 0.48 0.67 0.86 1.03 1.18 1.12 1.30 1.51 1.85 2.38 2.67 2.66 2.50 2.46 2.32 2.20 2.25 2.49 2.51 1.97 1.83 1.95 2.13 2.22 2.05 2.03 2.05 2.13 2.31 2.27 2.16 2.06 2.14 2.06 1.90 1.69 1.69 1.63 1.45
0.03 0.05 0.08 0.11 0.17 0.24 0.36 0.35 0.46 0.63 0.57 0.65 0.75 0.93 1.16 1.37 1.63 1.89 2.14 2.59 2.91 3.02 2.87 2.77 2.67 2.63 2.59 2.69 2.72 2.69 2.42 2.45 2.61 2.69 2.65 2.48 2.48 2.66 2.82 2.78 2.62 2.39 2.37 2.31 2.21 2.14 2.19 2.09 2.00
0.04 0.04 0.08 0.13 0.19 0.22 0.26 0.40 0.53 0.65 0.68 0.73 0.79 0.92 1.16 1.47 1.72 1.97 2.40 2.70 2.82 2.86 2.80 2.86 2.78 2.86 2.93 3.00 2.91 3.01 3.03 3.06 3.15 3.17 3.00 2.78 2.77 3.12 3.21 3.24 2.97 2.74 2.68 2.77 2.69 2.60 2.57 2.32 2.22
0.06 0.07 0.11 0.16 0.19 0.25 0.24 0.47 0.60 0.50 0.53 0.64 0.81 0.98 1.09 1.28 1.65 1.98 2.37 2.61 2.78 3.13 3.11 3.10 3.10 3.14 3.19 3.27 3.24 3.26 3.28 3.56 3.58 3.60 3.50 3.18 3.08 3.23 3.33 3.34 3.21 3.04 2.94 3.15 3.26 3.18 3.08 2.91 2.83
0.08 0.11 0.14 0.18 0.19 0.22 0.25 0.44 0.56 0.51 0.50 0.64 1.00 1.25 1.21 1.31 1.69 2.10 2.47 2.74 2.91 3.07 3.25 3.20 3.20 3.41 3.46 3.52 3.41 3.55 3.72 3.73 3.60 3.61 3.69 3.63 3.51 3.58 3.63 3.56 3.54 3.51 3.53 3.51 3.30 3.43 3.32 3.30 3.17
0.11 0.12 0.15 0.19 0.22 0.21 0.25 0.44 0.61 0.65 0.79 0.87 1.05 1.22 1.30 1.36 1.54 1.90 2.36 2.83 3.02 3.05 3.00 3.13 3.16 3.29 3.42 3.68 3.70 3.75 3.89 4.02 4.13 4.25 4.30 4.08 4.03 3.97 4.17 4.16 4.07 4.05 4.00 3.79 3.69 3.66 3.47 3.31 3.18
0.11 0.14 0.15 0.19 0.20 0.24 0.30 0.42 0.60 0.76 0.93 0.94 0.96 0.99 1.04 1.35 1.58 1.90 2.22 2.55 3.09 3.14 3.00 3.11 3.31 3.47 3.59 3.88 3.98 4.21 4.53 4.70 4.83 4.88 4.78 4.75 4.64 4.72 4.75 4.57 4.35 4.22 4.20 4.10 4.04 3.85 3.63 3.36 3.21
0.12 0.20 0.23 0.22 0.20 0.27 0.41 0.52 0.68 0.82 0.92 0.91 0.96 1.11 1.22 1.59 1.92 2.05 2.22 2.62 3.11 3.28 3.30 3.36 3.61 3.92 4.15 4.39 4.84 5.12 5.36 5.56 5.73 5.75 5.34 5.17 5.07 4.95 4.87 4.89 4.81 4.60 4.40 4.20 4.02 3.94 3.77 3.43 3.28
0.10 0.15 0.20 0.22 0.21 0.26 0.46 0.71 0.84 0.93 1.06 1.20 1.39 1.56 1.64 1.75 2.06 2.14 2.25 2.63 2.98 3.17 3.32 3.47 3.70 4.15 4.72 5.09 5.54 5.93 6.09 6.12 5.95 5.66 5.53 5.40 5.29 5.16 5.01 4.87 4.64 4.49 4.36 4.19 3.99 3.80 3.70 3.47 3.31
0.08 0.11 0.17 0.16 0.18 0.28 0.42 0.80 1.13 1.21 1.33 1.59 1.77 1.70 1.73 1.87 2.06 2.20 2.37 2.64 2.95 3.19 3.34 3.66 4.13 4.76 5.33 5.81 6.34 6.82 6.94 6.77 6.46 6.00 5.57 5.32 5.09 4.79 4.54 4.41 4.29 4.11 3.82 3.60 3.43 3.34 3.21 3.08 2.93
0.08 0.08 0.14 0.15 0.12 0.26 0.38 0.67 1.37 1.56 1.64 1.85 2.07 1.85 1.74 1.72 1.77 2.02 2.19 2.39 2.75 2.98 3.23 3.60 4.15 4.85 5.56 6.39 7.08 7.50 7.42 7.08 6.66 5.99 5.42 4.95 4.54 4.17 3.91 3.76 3.58 3.36 3.01 2.66 2.53 2.61 2.69 2.68 2.60
0.08 0.08 0.11 0.13 0.14 0.28 0.31 0.57 1.27 1.72 1.92 2.03 1.96 1.78 1.69 1.56 1.53 1.61 1.70 1.98 2.32 2.63 2.95 3.39 4.00 4.71 5.37 6.02 6.56 6.79 6.70 6.50 5.99 5.29 4.68 4.28 3.94 3.58 3.22 2.91 2.61 2.38 2.21 2.01 1.95 1.97 2.06 2.23 2.34
0.08 0.10 0.27 0.39 0.43 0.41 0.33 0.59 1.24 1.58 1.73 1.70 1.64 1.65 1.51 1.48 1.46 1.44 1.47 1.70 2.04 2.26 2.64 3.08 3.52 4.16 4.58 4.91 5.33 5.53 5.55 5.33 5.04 4.57 4.11 3.67 3.18 2.83 2.53 2.23 2.11 1.96 1.85 1.77 1.72 1.69 1.66 1.76 1.91
0.09 0.10 0.31 0.55 0.53 0.54 0.54 0.93 1.47 1.53 1.50 1.42 1.37 1.39 1.39 1.38 1.38 1.42 1.52 1.67 1.92 2.07 2.26 2.48 2.80 3.16 3.34 3.38 3.62 3.88 3.89 3.85 3.73 3.45 3.14 2.84 2.48 2.11 1.85 1.63 1.51 1.48 1.50 1.43 1.46 1.49 1.49 1.51 1.57
0.07 0.08 0.14 0.30 0.35 0.62 0.92 1.33 1.78 1.68 1.61 1.54 1.51 1.36 1.28 1.24 1.27 1.40 1.47 1.46 1.52 1.61 1.70 1.80 1.96 2.13 2.22 2.30 2.34 2.50 2.53 2.52 2.44 2.29 2.06 1.85 1.69 1.47 1.30 1.20 1.19 1.14 1.14 1.17 1.17 1.18 1.23 1.32 1.37
0.07 0.11 0.17 0.32 0.58 0.83 1.13 1.66 2.24 2.22 1.88 1.60 1.39 1.17 1.07 1.10 1.18 1.29 1.36 1.32 1.31 1.31 1.39 1.46 1.52 1.58 1.64 1.71 1.64 1.65 1.70 1.70 1.63 1.52 1.45 1.33 1.22 1.11 1.04 1.00 0.94 0.86 0.82 0.82 0.87 0.92 0.97 1.03 1.12
0.12 0.16 0.22 0.33 0.42 0.80 1.29 2.00 2.21 2.39 2.26 1.82 1.47 1.28 1.17 1.10 1.10 1.18 1.17 1.14 1.12 1.11 1.14 1.22 1.25 1.23 1.24 1.25 1.22 1.21 1.18 1.17 1.19 1.19 1.15 1.05 0.95 0.83 0.77 0.71 0.67 0.65 0.66 0.69 0.74 0.79 0.83 0.87 0.93
0.14 0.18 0.27 0.54 0.61 0.63 1.18 2.14 2.17 2.43 2.50 2.18 1.86 1.69 1.57 1.29 1.19 1.21 1.13 1.05 0.99 0.98 0.98 1.02 1.03 1.02 1.08 1.02 0.94 0.95 0.90 0.85 0.89 0.92 0.85 0.80 0.76 0.67 0.60 0.54 0.52 0.52 0.54 0.57 0.60 0.64 0.68 0.77 0.82

GEFSSGP_prec_meanprecacc_216.txt.gz
Total_Precipitation_Accumulation
0.00 0.00 0.00 0.01 0.04 0.10 0.22 0.26 0.31 0.44 0.49 0.43 0.45 0.51 0.59 0.62 0.76 1.42 0.89 0.38 0.23 0.12 0.09 0.09 0.10 0.12 0.15 0.16 0.21 0.22 0.22 0.22 0.20 0.18 0.18 0.18 0.20 0.20 0.19 0.24 0.38 0.43 0.41 0.35 0.33 0.34 0.33 0.29 0.25
0.01 0.01 0.02 0.03 0.06 0.17 0.25 0.28 0.36 0.46 0.43 0.36 0.41 0.47 0.44 0.42 0.39 0.43 0.50 0.33 0.23 0.14 0.11 0.08 0.09 0.10 0.12 0.12 0.15 0.20 0.22 0.23 0.21 0.18 0.18 0.18 0.20 0.22 0.24 0.27 0.36 0.48 0.53 0.51 0.43 0.38 0.35 0.31 0.26
0.01 0.02 0.03 0.02 0.07 0.20 0.27 0.27 0.34 0.40 0.35 0.39 0.44 0.49 0.52 0.46 0.40 0.42 0.42 0.26 0.25 0.20 0.14 0.12 0.10 0.10 0.10 0.11 0.14 0.20 0.27 0.32 0.29 0.26 0.24 0.21 0.20 0.23 0.27 0.32 0.37 0.45 0.51 0.52 0.47 0.42 0.39 0.34 0.28
0.01 0.02 0.02 0.03 0.09 0.18 0.27 0.32 0.43 0.49 0.39 0.40 0.39 0.53 0.59 0.50 0.50 0.48 0.43 0.35 0.27 0.26 0.23 0.18 0.14 0.13 0.13 0.14 0.15 0.20 0.35 0.37 0.32 0.31 0.29 0.27 0.27 0.26 0.31 0.40 0.44 0.44 0.46 0.49 0.52 0.50 0.41 0.33 0.27
0.02 0.02 0.02 0.04 0.09 0.17 0.31 0.40 0.55 0.56 0.41 0.36 0.40 0.63 0.78 0.71 0.65 0.63 0.53 0.45 0.36 0.32 0.34 0.25 0.21 0.21 0.21 0.19 0.19 0.24 0.33 0.36 0.38 0.41 0.38 0.34 0.32 0.33 0.39 0.47 0.51 0.51 0.54 0.54 0.53 0.48 0.39 0.31 0.30
0.02 0.02 0.03 0.06 0.11 0.21 0.27 0.40 0.45 0.50 0.44 0.39 0.52 0.89 1.20 1.20 1.10 0.97 0.86 0.60 0.48 0.39 0.45 0.39 0.31 0.28 0.28 0.27 0.26 0.31 0.38 0.44 0.47 0.46 0.40 0.37 0.36 0.38 0.43 0.48 0.50 0.54 0.54 0.49 0.43 0.39 0.34 0.35 0.34
0.01 0.02 0.03 0.07 0.15 0.22 0.27 0.42 0.49 0.54 0.50 0.51 0.74 0.96 1.23 1.38 1.41 1.33 1.16 0.89 0.82 0.72 0.75 0.66 0.49 0.42 0.40 0.44 0.45 0.41 0.41 0.45 0.50 0.51 0.44 0.38 0.38 0.38 0.40 0.43 0.46 0.47 0.43 0.40 0.37 0.35 0.32 0.31 0.28
0.01 0.01 0.03 0.10 0.19 0.25 0.35 0.51 0.49 0.50 0.55 0.65 0.90 1.10 1.42 1.42 1.23 1.37 1.35 1.19 1.18 1.21 1.17 0.83 0.63 0.62 0.68 0.69 0.62 0.55 0.51 0.51 0.51 0.50 0.51 0.46 0.42 0.42 0.45 0.43 0.45 0.45 0.45 0.43 0.39 0.38 0.39 0.37 0.34
0.01 0.01 0.04 0.13 0.23 0.28 0.29 0.46 0.45 0.38 0.43 0.62 0.89 1.00 1.17 1.13 1.10 1.37 1.47 1.59 1.67 1.48 1.27 1.11 0.91 0.86 0.86 0.80 0.68 0.68 0.65 0.62 0.63 0.61 0.57 0.56 0.56 0.65 0.67 0.57 0.62 0.59 0.58 0.53 0.52 0.52 0.49 0.45 0.40
0.01 0.02 0.05 0.11 0.16 0.23 0.29 0.41 0.37 0.41 0.44 0.57 0.71 0.94 1.15 1.09 1.27 1.43 1.56 1.86 1.77 1.70 1.51 1.40 1.29 1.12 1.04 0.88 0.90 0.90 0.85 0.84 0.79 0.88 0.83 0.89 1.06 1.15 1.06 1.14 1.05 0.91 0.81 0.75 0.75 0.76 0.66 0.55 0.49
0.03 0.03 0.07 0.11 0.12 0.19 0.30 0.38 0.37 0.48 0.64 0.91 1.00 1.04 1.11 1.11 1.32 1.56 1.82 2.15 2.15 1.94 1.64 1.59 1.57 1.53 1.48 1.45 1.30 1.19 1.20 1.25 1.18 1.31 1.24 1.33 1.43 1.38 1.42 1.53 1.37 1.23 1.10 1.04 1.11 0.98 0.77 0.73 0.80
0.06 0.07 0.12 0.12 0.15 0.24 0.39 0.47 0.62 0.69 0.81 1.03 1.11 1.07 1.17 1.24 1.38 1.59 1.88 2.17 2.37 2.28 2.07 2.06 1.84 1.78 1.85 2.04 1.93 1.56 1.47 1.48 1.43 1.64 1.59 1.73 1.86 1.85 1.95 1.99 1.78 1.72 1.68 1.67 1.53 1.41 1.22 1.11 1.06
0.07 0.09 0.12 0.10 0.19 0.31 0.46 0.50 0.60 0.60 0.50 0.76 0.95 1.06 1.21 1.18 1.35 1.56 1.89 2.42 2.71 2.70 2.53 2.48 2.34 2.23 2.28 2.52 2.54 2.01 1.88 2.00 2.19 2.27 2.09 2.08 2.10 2.16 2.35 2.30 2.20 2.12 2.21 2.13 1.96 1.75 1.76 1.70 1.51
0.04 0.05 0.08 0.12 0.17 0.25 0.38 0.38 0.49 0.66 0.59 0.69 0.81 0.97 1.18 1.41 1.67 1.95 2.23 2.65 2.96 3.07 2.93 2.81 2.71 2.66 2.62 2.72 2.75 2.71 2.45 2.49 2.65 2.73 2.69 2.52 2.52 2.69 2.86 2.82 2.65 2.44 2.44 2.38 2.28 2.21 2.26 2.17 2.08
0.05 0.05 0.09 0.14 0.20 0.23 0.27 0.43 0.57 0.69 0.71 0.76 0.82 0.95 1.19 1.50 1.75 2.03 2.52 2.80 2.89 2.92 2.88 2.96 2.88 2.94 2.97 3.02 2.93 3.04 3.06 3.09 3.19 3.21 3.03 2.82 2.81 3.15 3.24 3.27 3.01 2.78 2.75 2.86 2.80 2.71 2.67 2.41 2.30
0.07 0.08 0.12 0.17 0.20 0.27 0.25 0.49 0.67 0.55 0.57 0.68 0.84 1.00 1.12 1.31 1.69 2.04 2.44 2.69 2.85 3.21 3.24 3.23 3.21 3.21 3.23 3.29 3.27 3.28 3.30 3.58 3.60 3.63 3.54 3.23 3.12 3.26 3.36 3.39 3.27 3.13 3.06 3.29 3.40 3.32 3.21 3.03 2.93
0.10 0.12 0.14 0.19 0.20 0.25 0.26 0.47 0.63 0.57 0.55 0.68 1.03 1.29 1.24 1.35 1.76 2.17 2.52 2.81 2.98 3.17 3.35 3.29 3.31 3.48 3.48 3.54 3.43 3.57 3.75 3.76 3.65 3.66 3.73 3.66 3.55 3.61 3.66 3.60 3.60 3.62 3.68 3.67 3.47 3.56 3.41 3.40 3.28
0.14 0.14 0.16 0.20 0.23 0.22 0.27 0.46 0.66 0.72 0.84 0.91 1.08 1.26 1.35 1.41 1.60 1.96 2.42 2.89 3.08 3.12 3.06 3.19 3.24 3.39 3.47 3.72 3.73 3.78 3.93 4.08 4.21 4.34 4.36 4.12 4.06 4.00 4.21 4.19 4.10 4.11 4.07 3.88 3.81 3.78 3.59 3.42 3.28
0.12 0.16 0.18 0.21 0.23 0.28 0.34 0.46 0.70 0.83 1.00 1.00 1.02 1.04 1.10 1.43 1.64 1.95 2.29 2.62 3.17 3.22 3.06 3.16 3.37 3.55 3.65 3.94 4.04 4.26 4.60 4.82 4.97 5.00 4.88 4.83 4.69 4.76 4.78 4.60 4.38 4.25 4.24 4.16 4.12 3.94 3.72 3.47 3.32
0.15 0.23 0.27 0.24 0.23 0.31 0.44 0.58 0.77 0.90 0.98 0.95 1.03 1.17 1.28 1.67 2.00 2.13 2.31 2.72 3.21 3.39 3.41 3.45 3.65 3.96 4.18 4.42 4.87 5.17 5.43 5.68 5.88 5.89 5.46 5.25 5.13 4.99 4.90 4.92 4.84 4.63 4.44 4.25 4.07 3.99 3.83 3.50 3.37
0.11 0.17 0.21 0.24 0.23 0.30 0.49 0.76 0.93 1.01 1.12 1.25 1.45 1.64 1.74 1.89 2.19 2.27 2.37 2.73 3.05 3.24 3.38 3.51 3.74 4.19 4.74 5.13 5.59 6.00 6.16 6.20 6.07 5.79 5.65 5.50 5.36 5.22 5.07 4.91 4.69 4.52 4.39 4.23 4.02 3.84 3.74 3.52 3.39
0.10 0.12 0.18 0.18 0.21 0.32 0.45 0.84 1.18 1.26 1.37 1.65 1.86 1.83 1.87 2.01 2.20 2.35 2.51 2.74 3.01 3.23 3.38 3.70 4.17 4.80 5.37 5.85 6.38 6.86 6.98 6.82 6.52 6.08 5.65 5.40 5.16 4.85 4.61 4.48 4.36 4.16 3.86 3.63 3.47 3.39 3.25 3.13 2.99
0.10 0.09 0.15 0.16 0.15 0.28 0.42 0.71 1.43 1.61 1.70 1.94 2.16 1.94 1.85 1.83 1.88 2.13 2.29 2.48 2.85 3.04 3.27 3.64 4.18 4.88 5.60 6.43 7.12 7.53 7.45 7.11 6.70 6.02 5.45 4.99 4.58 4.23 3.98 3.84 3.66 3.43 3.06 2.70 2.57 2.65 2.74 2.75 2.67
0.09 0.09 0.12 0.15 0.18 0.31 0.34 0.61 1.34 1.80 1.99 2.10 2.04 1.86 1.77 1.64 1.61 1.69 1.78 2.04 2.37 2.68 2.99 3.42 4.03 4.75 5.41 6.06 6.60 6.83 6.73 6.52 6.01 5.32 4.69 4.30 3.97 3.62 3.27 2.96 2.67 2.44 2.27 2.06 2.01 2.05 2.14 2.32 2.43
0.09 0.11 0.29 0.43 0.48 0.48 0.38 0.65 1.31 1.70 1.84 1.77 1.71 1.73 1.59 1.55 1.52 1.49 1.51 1.74 2.07 2.28 2.68 3.11 3.55 4.19 4.63 4.96 5.38 5.57 5.58 5.35 5.06 4.59 4.13 3.69 3.21 2.86 2.57 2.29 2.15 2.01 1.90 1.83 1.79 1.76 1.73 1.83 1.98
0.09 0.10 0.33 0.57 0.56 0.58 0.60 0.99 1.54 1.61 1.58 1.49 1.43 1.46 1.47 1.43 1.42 1.46 1.54 1.70 1.95 2.10 2.29 2.52 2.83 3.19 3.38 3.43 3.67 3.91 3.93 3.88 3.76 3.47 3.16 2.87 2.52 2.15 1.89 1.68 1.56 1.54 1.56 1.49 1.52 1.54 1.54 1.55 1.61
0.07 0.08 0.15 0.31 0.36 0.64 0.96 1.41 1.86 1.74 1.68 1.60 1.56 1.41 1.33 1.29 1.31 1.43 1.49 1.49 1.55 1.64 1.73 1.82 2.00 2.17 2.25 2.34 2.40 2.55 2.59 2.57 2.48 2.32 2.09 1.90 1.75 1.53 1.37 1.26 1.24 1.21 1.21 1.23 1.22 1.22 1.27 1.35 1.40
0.07 0.12 0.18 0.33 0.61 0.86 1.18 1.76 2.34 2.27 1.92 1.63 1.45 1.23 1.11 1.14 1.22 1.31 1.38 1.35 1.35 1.35 1.42 1.49 1.56 1.63 1.68 1.74 1.69 1.70 1.75 1.75 1.69 1.56 1.49 1.39 1.27 1.17 1.12 1.07 1.01 0.94 0.91 0.90 0.91 0.94 0.99 1.06 1.15
0.13 0.17 0.23 0.35 0.44 0.83 1.33 2.06 2.25 2.43 2.31 1.89 1.56 1.36 1.22 1.14 1.12 1.20 1.20 1.18 1.16 1.16 1.19 1.26 1.30 1.29 1.30 1.29 1.25 1.24 1.21 1.22 1.25 1.24 1.20 1.11 1.00 0.87 0.81 0.76 0.72 0.69 0.71 0.74 0.78 0.81 0.85 0.89 0.96
0.15 0.19 0.28 0.56 0.64 0.66 1.25 2.24 2.22 2.47 2.55 2.25 1.93 1.73 1.61 1.33 1.22 1.23 1.15 1.09 1.03 1.03 1.04 1.07 1.08 1.08 1.13 1.06 0.97 0.97 0.94 0.92 0.95 0.97 0.90 0.85 0.81 0.71 0.62 0.56 0.55 0.55 0.57 0.59 0.62 0.66 0.70 0.79 0.84

GEFSSGP_prec_meanprecacc_222.txt.gz
Total_Precipitation_Accumulation
0.00 0.00 0.01 0.02 0.05 0.10 0.23 0.27 0.33 0.47 0.52 0.48 0.48 0.54 0.62 0.66 0.81 1.46 0.90 0.39 0.26 0.16 0.12 0.11 0.13 0.15 0.17 0.18 0.23 0.24 0.24 0.23 0.22 0.19 0.19 0.19 0.21 0.21 0.21 0.26 0.40 0.46 0.44 0.38 0.36 0.37 0.36 0.32 0.28
0.01 0.01 0.02 0.03 0.06 0.18 0.26 0.28 0.37 0.48 0.45 0.39 0.43 0.49 0.46 0.45 0.42 0.45 0.51 0.35 0.25 0.16 0.13 0.09 0.11 0.13 0.14 0.15 0.17 0.22 0.24 0.25 0.22 0.19 0.19 0.19 0.22 0.24 0.25 0.28 0.42 0.60 0.59 0.56 0.47 0.41 0.38 0.34 0.29
0.01 0.02 0.03 0.02 0.07 0.21 0.29 0.29 0.35 0.41 0.37 0.41 0.47 0.52 0.54 0.48 0.42 0.44 0.44 0.27 0.26 0.21 0.16 0.14 0.12 0.12 0.13 0.14 0.17 0.22 0.29 0.35 0.31 0.27 0.25 0.22 0.22 0.24 0.28 0.33 0.40 0.59 0.63 0.60 0.52 0.48 0.43 0.37 0.32
0.01 0.02 0.02 0.03 0.09 0.19 0.28 0.33 0.44 0.50 0.41 0.43 0.45 0.59 0.65 0.54 0.52 0.49 0.44 0.36 0.28 0.27 0.25 0.19 0.16 0.15 0.16 0.17 0.17 0.22 0.38 0.40 0.35 0.33 0.31 0.29 0.28 0.28 0.34 0.42 0.46 0.47 0.51 0.55 0.58 0.58 0.48 0.37 0.31
0.02 0.03 0.02 0.04 0.09 0.18 0.32 0.41 0.56 0.58 0.43 0.38 0.45 0.72 0.85 0.76 0.68 0.64 0.55 0.47 0.37 0.33 0.36 0.27 0.23 0.23 0.24 0.22 0.21 0.26 0.36 0.40 0.41 0.43 0.40 0.36 0.33 0.35 0.41 0.49 0.53 0.53 0.56 0.56 0.56 0.59 0.50 0.39 0.37
0.02 0.02 0.03 0.07 0.12 0.21 0.28 0.42 0.46 0.54 0.47 0.42 0.56 0.94 1.26 1.25 1.13 0.99 0.88 0.62 0.50 0.40 0.46 0.40 0.34 0.30 0.30 0.29 0.28 0.33 0.40 0.47 0.51 0.49 0.42 0.39 0.39 0.40 0.45 0.50 0.52 0.56 0.57 0.52 0.46 0.46 0.46 0.47 0.44
0.02 0.02 0.04 0.08 0.16 0.22 0.28 0.45 0.50 0.56 0.54 0.55 0.76 0.99 1.27 1.41 1.43 1.35 1.19 0.92 0.86 0.75 0.78 0.69 0.52 0.45 0.42 0.46 0.47 0.43 0.43 0.47 0.53 0.54 0.47 0.42 0.42 0.42 0.43 0.45 0.48 0.50 0.47 0.44 0.42 0.40 0.40 0.41 0.40
0.01 0.01 0.03 0.11 0.19 0.25 0.36 0.55 0.53 0.52 0.57 0.67 0.92 1.12 1.45 1.44 1.25 1.39 1.37 1.21 1.21 1.25 1.21 0.86 0.66 0.65 0.70 0.70 0.64 0.57 0.53 0.53 0.53 0.53 0.54 0.50 0.46 0.47 0.51 0.48 0.50 0.50 0.49 0.47 0.45 0.44 0.45 0.45 0.43
0.01 0.01 0.04 0.13 0.23 0.28 0.30 0.47 0.47 0.40 0.45 0.63 0.91 1.04 1.19 1.15 1.12 1.39 1.49 1.61 1.69 1.50 1.30 1.14 0.93 0.88 0.87 0.82 0.70 0.70 0.67 0.64 0.65 0.64 0.60 0.58 0.58 0.68 0.71 0.63 0.68 0.66 0.64 0.58 0.57 0.57 0.55 0.52 0.48
0.02 0.02 0.05 0.11 0.16 0.23 0.30 0.42 0.38 0.43 0.47 0.59 0.73 0.97 1.18 1.12 1.29 1.45 1.58 1.88 1.78 1.72 1.53 1.42 1.30 1.13 1.06 0.89 0.91 0.90 0.86 0.86 0.82 0.91 0.85 0.91 1.08 1.17 1.08 1.17 1.10 0.98 0.89 0.81 0.82 0.83 0.73 0.63 0.56
0.03 0.04 0.07 0.11 0.12 0.19 0.30 0.39 0.38 0.50 0.65 0.92 1.02 1.07 1.14 1.14 1.35 1.59 1.84 2.17 2.17 1.95 1.65 1.60 1.58 1.55 1.50 1.48 1.32 1.20 1.22 1.27 1.23 1.36 1.27 1.35 1.46 1.41 1.44 1.55 1.39 1.26 1.16 1.12 1.18 1.05 0.83 0.79 0.86
0.06 0.07 0.12 0.12 0.15 0.25 0.39 0.48 0.63 0.70 0.83 1.05 1.13 1.10 1.21 1.28 1.44 1.63 1.90 2.18 2.39 2.29 2.08 2.07 1.85 1.80 1.87 2.06 1.97 1.59 1.50 1.52 1.49 1.69 1.62 1.75 1.88 1.87 1.96 2.01 1.80 1.75 1.73 1.71 1.59 1.47 1.29 1.19 1.14
0.07 0.09 0.12 0.11 0.19 0.31 0.47 0.50 0.61 0.60 0.52 0.77 0.98 1.11 1.24 1.22 1.43 1.61 1.92 2.45 2.73 2.72 2.54 2.50 2.36 2.25 2.31 2.55 2.58 2.05 1.92 2.04 2.24 2.32 2.13 2.11 2.11 2.17 2.36 2.32 2.23 2.15 2.25 2.17 2.01 1.81 1.82 1.76 1.58
0.04 0.06 0.08 0.12 0.18 0.25 0.39 0.39 0.50 0.68 0.61 0.71 0.84 1.01 1.23 1.46 1.75 2.01 2.27 2.69 2.99 3.10 2.96 2.84 2.75 2.70 2.65 2.75 2.78 2.75 2.51 2.55 2.71 2.78 2.73 2.56 2.55 2.71 2.88 2.83 2.67 2.46 2.46 2.42 2.32 2.26 2.32 2.23 2.15
0.05 0.06 0.09 0.14 0.21 0.24 0.29 0.45 0.59 0.71 0.74 0.80 0.86 0.99 1.23 1.55 1.83 2.10 2.58 2.86 2.93 2.96 2.92 2.99 2.93 3.00 3.03 3.10 3.00 3.09 3.10 3.14 3.25 3.27 3.10 2.88 2.86 3.19 3.26 3.28 3.01 2.79 2.76 2.87 2.82 2.74 2.72 2.46 2.36
0.08 0.08 0.12 0.18 0.21 0.27 0.26 0.51 0.69 0.57 0.61 0.73 0.89 1.05 1.16 1.37 1.78 2.13 2.52 2.75 2.90 3.26 3.28 3.27 3.26 3.30 3.35 3.38 3.32 3.31 3.33 3.63 3.70 3.68 3.57 3.28 3.18 3.30 3.38 3.40 3.28 3.13 3.06 3.29 3.41 3.34 3.25 3.07 2.97
0.10 0.12 0.15 0.19 0.20 0.26 0.28 0.50 0.66 0.61 0.59 0.74 1.09 1.34 1.30 1.45 1.89 2.30 2.62 2.88 3.03 3.22 3.40 3.37 3.41 3.58 3.56 3.58 3.46 3.61 3.78 3.80 3.72 3.71 3.76 3.70 3.59 3.65 3.69 3.62 3.61 3.62 3.69 3.68 3.48 3.58 3.44 3.43 3.32
0.14 0.14 0.16 0.21 0.24 0.23 0.28 0.48 0.68 0.76 0.89 0.95 1.13 1.34 1.46 1.54 1.73 2.08 2.54 2.99 3.14 3.17 3.13 3.26 3.31 3.43 3.52 3.76 3.76 3.80 3.95 4.11 4.24 4.37 4.40 4.17 4.12 4.06 4.26 4.24 4.14 4.13 4.09 3.89 3.82 3.80 3.61 3.44 3.31
0.13 0.16 0.19 0.23 0.24 0.28 0.35 0.48 0.73 0.87 1.04 1.04 1.07 1.16 1.25 1.55 1.75 2.08 2.42 2.72 3.25 3.28 3.15 3.24 3.41 3.60 3.70 3.96 4.05 4.28 4.62 4.84 4.99 5.02 4.91 4.88 4.76 4.85 4.86 4.68 4.46 4.32 4.28 4.18 4.14 3.96 3.75 3.49 3.37
0.15 0.23 0.28 0.25 0.23 0.31 0.45 0.59 0.79 0.93 1.01 0.99 1.08 1.26 1.38 1.77 2.11 2.26 2.44 2.82 3.31 3.47 3.49 3.52 3.71 4.01 4.22 4.45 4.90 5.19 5.45 5.69 5.89 5.93 5.50 5.29 5.19 5.08 4.98 4.98 4.90 4.70 4.50 4.29 4.10 4.01 3.85 3.53 3.41
0.12 0.17 0.23 0.25 0.23 0.30 0.50 0.78 0.95 1.04 1.17 1.30 1.51 1.70 1.81 1.99 2.31 2.39 2.49 2.83 3.16 3.33 3.45 3.58 3.82 4.24 4.78 5.17 5.62 6.02 6.17 6.22 6.08 5.83 5.72 5.58 5.42 5.26 5.09 4.94 4.72 4.56 4.43 4.26 4.05 3.87 3.77 3.54 3.41
0.11 0.12 0.20 0.19 0.22 0.32 0.46 0.85 1.19 1.29 1.42 1.68 1.90 1.89 1.93 2.10 2.30 2.43 2.60 2.83 3.11 3.33 3.46 3.79 4.27 4.86 5.42 5.89 6.42 6.89 7.00 6.85 6.55 6.11 5.69 5.44 5.20 4.88 4.63 4.50 4.38 4.19 3.89 3.65 3.50 3.41 3.27 3.14 3.01
0.11 0.10 0.16 0.18 0.16 0.28 0.42 0.72 1.44 1.63 1.73 1.97 2.20 1.98 1.91 1.91 1.97 2.20 2.37 2.57 2.95 3.12 3.33 3.69 4.24 4.94 5.64 6.46 7.15 7.57 7.49 7.16 6.73 6.06 5.48 5.00 4.60 4.25 3.99 3.85 3.67 3.45 3.09 2.73 2.60 2.68 2.77 2.77 2.70
0.10 0.10 0.14 0.16 0.19 0.32 0.34 0.62 1.34 1.81 2.02 2.14 2.07 1.89 1.81 1.69 1.70 1.80 1.89 2.13 2.46 2.76 3.05 3.46 4.07 4.78 5.44 6.10 6.63 6.86 6.77 6.56 6.04 5.34 4.72 4.32 3.99 3.64 3.29 2.98 2.70 2.47 2.31 2.11 2.05 2.08 2.16 2.35 2.46
0.10 0.12 0.31 0.43 0.48 0.48 0.39 0.65 1.31 1.70 1.86 1.79 1.73 1.76 1.63 1.61 1.60 1.58 1.60 1.81 2.14 2.35 2.72 3.15 3.58 4.22 4.65 5.00 5.42 5.60 5.62 5.39 5.09 4.61 4.15 3.71 3.23 2.88 2.59 2.32 2.18 2.04 1.93 1.86 1.83 1.80 1.77 1.86 2.02
0.10 0.11 0.33 0.58 0.56 0.58 0.60 1.00 1.54 1.62 1.59 1.51 1.45 1.48 1.50 1.50 1.48 1.52 1.60 1.76 2.02 2.15 2.35 2.57 2.87 3.23 3.42 3.48 3.72 3.96 3.98 3.93 3.79 3.51 3.20 2.90 2.53 2.16 1.92 1.72 1.60 1.58 1.61 1.54 1.56 1.58 1.58 1.59 1.66
0.08 0.08 0.15 0.31 0.37 0.65 0.97 1.41 1.86 1.75 1.68 1.61 1.58 1.43 1.36 1.33 1.36 1.46 1.53 1.53 1.59 1.68 1.78 1.88 2.04 2.20 2.31 2.39 2.44 2.60 2.63 2.62 2.53 2.36 2.13 1.93 1.77 1.55 1.39 1.29 1.28 1.27 1.28 1.32 1.30 1.28 1.32 1.41 1.46
0.07 0.12 0.18 0.34 0.62 0.88 1.19 1.77 2.34 2.28 1.93 1.64 1.46 1.25 1.14 1.17 1.25 1.34 1.40 1.38 1.38 1.38 1.46 1.53 1.58 1.65 1.71 1.78 1.72 1.73 1.78 1.79 1.74 1.61 1.54 1.44 1.31 1.21 1.19 1.13 1.06 1.00 0.99 1.00 1.04 1.06 1.08 1.13 1.22
0.14 0.17 0.24 0.36 0.46 0.83 1.33 2.06 2.26 2.44 2.33 1.90 1.57 1.38 1.25 1.16 1.14 1.22 1.22 1.20 1.18 1.18 1.22 1.30 1.32 1.32 1.33 1.32 1.29 1.26 1.23 1.24 1.29 1.30 1.25 1.16 1.05 0.94 0.91 0.82 0.77 0.74 0.77 0.82 0.87 0.90 0.94 0.98 1.03
0.16 0.19 0.28 0.57 0.64 0.66 1.26 2.24 2.24 2.49 2.57 2.27 1.95 1.75 1.63 1.35 1.25 1.25 1.17 1.11 1.05 1.05 1.06 1.10 1.11 1.12 1.16 1.08 0.99 0.99 0.96 0.95 0.99 1.03 0.95 0.90 0.87 0.78 0.71 0.62 0.60 0.59 0.62 0.65 0.68 0.72 0.76 0.86 0.89

GEFSSGP_prec_meanprecacc_228.txt.gz
Total_Precipitation_Accumulation
0.00 0.00 0.01 0.02 0.05 0.11 0.23 0.28 0.34 0.47 0.52 0.48 0.48 0.54 0.63 0.67 0.81 1.47 0.91 0.41 0.29 0.19 0.20 0.20 0.20 0.21 0.21 0.22 0.27 0.29 0.28 0.26 0.25 0.22 0.22 0.23 0.23 0.24 0.24 0.28 0.42 0.47 0.45 0.39 0.38 0.39 0.37 0.33 0.30
0.01 0.01 0.02 0.03 0.07 0.19 0.27 0.30 0.38 0.48 0.45 0.40 0.44 0.49 0.46 0.45 0.43 0.46 0.54 0.38 0.28 0.20 0.20 0.15 0.16 0.18 0.18 0.18 0.20 0.25 0.28 0.28 0.24 0.22 0.23 0.23 0.25 0.26 0.27 0.30 0.44 0.62 0.61 0.58 0.49 0.43 0.40 0.36 0.31
0.01 0.02 0.03 0.03 0.08 0.23 0.30 0.31 0.36 0.42 0.37 0.41 0.47 0.52 0.54 0.49 0.44 0.46 0.46 0.29 0.28 0.25 0.21 0.18 0.15 0.15 0.16 0.17 0.19 0.26 0.32 0.38 0.33 0.29 0.28 0.26 0.25 0.27 0.31 0.36 0.43 0.62 0.66 0.63 0.55 0.51 0.46 0.41 0.35
0.01 0.02 0.02 0.03 0.11 0.21 0.29 0.35 0.45 0.50 0.41 0.43 0.45 0.59 0.65 0.55 0.54 0.51 0.46 0.37 0.29 0.29 0.27 0.21 0.19 0.17 0.17 0.19 0.19 0.24 0.40 0.43 0.37 0.35 0.33 0.32 0.32 0.31 0.37 0.46 0.49 0.49 0.54 0.58 0.61 0.62 0.51 0.40 0.35
0.02 0.03 0.02 0.05 0.11 0.19 0.33 0.42 0.57 0.58 0.43 0.39 0.46 0.72 0.86 0.78 0.71 0.66 0.55 0.47 0.38 0.34 0.37 0.28 0.25 0.25 0.25 0.23 0.22 0.27 0.37 0.42 0.43 0.45 0.43 0.38 0.38 0.40 0.44 0.52 0.57 0.56 0.60 0.60 0.60 0.63 0.55 0.45 0.42
0.02 0.02 0.03 0.08 0.12 0.22 0.28 0.42 0.47 0.54 0.47 0.43 0.57 0.95 1.29 1.28 1.15 1.01 0.89 0.63 0.51 0.41 0.48 0.42 0.34 0.31 0.30 0.30 0.28 0.33 0.41 0.48 0.52 0.50 0.44 0.42 0.42 0.44 0.49 0.53 0.56 0.61 0.64 0.58 0.52 0.54 0.56 0.56 0.52
0.02 0.02 0.04 0.08 0.16 0.22 0.28 0.45 0.51 0.56 0.54 0.55 0.77 1.01 1.30 1.44 1.45 1.36 1.20 0.93 0.87 0.77 0.80 0.71 0.54 0.46 0.43 0.47 0.48 0.44 0.44 0.48 0.54 0.56 0.49 0.45 0.45 0.45 0.47 0.50 0.53 0.55 0.54 0.52 0.51 0.54 0.52 0.52 0.52
0.02 0.01 0.04 0.11 0.19 0.26 0.36 0.55 0.53 0.52 0.57 0.67 0.93 1.15 1.48 1.46 1.28 1.41 1.40 1.23 1.22 1.27 1.24 0.88 0.69 0.67 0.72 0.71 0.65 0.58 0.53 0.53 0.54 0.54 0.55 0.51 0.48 0.50 0.54 0.51 0.54 0.54 0.56 0.54 0.52 0.53 0.53 0.54 0.56
0.01 0.02 0.05 0.13 0.23 0.28 0.30 0.47 0.47 0.40 0.45 0.63 0.92 1.06 1.22 1.16 1.14 1.41 1.51 1.63 1.71 1.52 1.33 1.18 0.96 0.89 0.89 0.82 0.70 0.70 0.68 0.65 0.66 0.64 0.61 0.60 0.60 0.70 0.73 0.65 0.71 0.69 0.68 0.62 0.62 0.63 0.61 0.60 0.59
0.02 0.02 0.05 0.11 0.16 0.23 0.30 0.42 0.39 0.43 0.47 0.59 0.73 0.98 1.20 1.14 1.32 1.47 1.60 1.91 1.80 1.73 1.55 1.44 1.32 1.14 1.07 0.90 0.92 0.92 0.88 0.88 0.85 0.93 0.87 0.93 1.11 1.20 1.10 1.20 1.14 1.02 0.92 0.85 0.86 0.88 0.79 0.69 0.63
0.03 0.04 0.07 0.11 0.12 0.19 0.30 0.39 0.38 0.50 0.66 0.93 1.03 1.07 1.15 1.17 1.38 1.61 1.86 2.18 2.20 1.98 1.67 1.62 1.59 1.56 1.52 1.50 1.34 1.24 1.25 1.31 1.26 1.39 1.30 1.39 1.49 1.45 1.48 1.60 1.44 1.30 1.20 1.16 1.22 1.10 0.88 0.84 0.91
0.06 0.07 0.12 0.12 0.15 0.25 0.39 0.48 0.63 0.70 0.83 1.06 1.15 1.11 1.23 1.31 1.46 1.64 1.91 2.20 2.42 2.33 2.11 2.09 1.87 1.81 1.88 2.08 1.99 1.62 1.54 1.55 1.52 1.72 1.65 1.79 1.93 1.93 2.02 2.06 1.84 1.78 1.75 1.75 1.63 1.52 1.35 1.25 1.20
0.07 0.09 0.12 0.11 0.19 0.31 0.47 0.51 0.61 0.61 0.52 0.79 0.99 1.12 1.26 1.25 1.44 1.62 1.94 2.49 2.77 2.75 2.57 2.52 2.39 2.28 2.32 2.57 2.60 2.09 1.96 2.07 2.27 2.36 2.18 2.17 2.17 2.22 2.41 2.38 2.27 2.17 2.26 2.19 2.04 1.84 1.85 1.81 1.64
0.04 0.06 0.08 0.12 0.18 0.26 0.39 0.39 0.51 0.68 0.62 0.73 0.86 1.04 1.26 1.49 1.76 2.02 2.30 2.73 3.03 3.13 2.99 2.87 2.78 2.74 2.69 2.79 2.83 2.79 2.55 2.59 2.76 2.83 2.79 2.61 2.59 2.75 2.91 2.87 2.69 2.47 2.47 2.42 2.34 2.28 2.34 2.26 2.19
0.05 0.06 0.09 0.15 0.21 0.25 0.29 0.46 0.60 0.72 0.75 0.82 0.90 1.03 1.26 1.57 1.85 2.12 2.61 2.91 2.97 3.01 2.96 3.03 2.97 3.03 3.08 3.16 3.07 3.15 3.14 3.18 3.29 3.31 3.13 2.92 2.90 3.22 3.29 3.31 3.03 2.80 2.76 2.88 2.83 2.76 2.73 2.48 2.39
0.08 0.09 0.12 0.18 0.21 0.28 0.27 0.52 0.70 0.58 0.62 0.76 0.93 1.07 1.17 1.39 1.81 2.18 2.57 2.79 2.96 3.32 3.32 3.31 3.29 3.33 3.40 3.43 3.37 3.37 3.37 3.66 3.72 3.71 3.60 3.32 3.22 3.34 3.42 3.43 3.30 3.15 3.08 3.30 3.42 3.35 3.26 3.08 2.99
0.11 0.13 0.15 0.20 0.21 0.26 0.28 0.51 0.67 0.63 0.61 0.76 1.12 1.36 1.33 1.48 1.92 2.35 2.69 2.93 3.08 3.25 3.44 3.39 3.43 3.61 3.59 3.62 3.48 3.62 3.80 3.82 3.76 3.75 3.78 3.72 3.64 3.70 3.73 3.65 3.64 3.65 3.71 3.70 3.50 3.59 3.45 3.44 3.34
0.14 0.14 0.17 0.21 0.24 0.23 0.29 0.48 0.69 0.77 0.90 0.97 1.16 1.38 1.51 1.58 1.77 2.13 2.60 3.04 3.17 3.19 3.15 3.28 3.33 3.46 3.54 3.77 3.77 3.82 3.97 4.13 4.29 4.41 4.43 4.20 4.16 4.12 4.31 4.28 4.19 4.18 4.14 3.94 3.86 3.83 3.64 3.47 3.34
0.13 0.16 0.19 0.23 0.24 0.29 0.36 0.48 0.73 0.89 1.05 1.05 1.10 1.21 1.33 1.62 1.81 2.13 2.49 2.79 3.30 3.31 3.17 3.26 3.43 3.61 3.71 3.98 4.07 4.30 4.64 4.87 5.03 5.07 4.93 4.91 4.80 4.90 4.94 4.75 4.52 4.38 4.37 4.28 4.23 4.03 3.79 3.52 3.40
0.15 0.24 0.28 0.25 0.24 0.32 0.46 0.60 0.79 0.94 1.02 0.99 1.09 1.29 1.43 1.82 2.16 2.31 2.50 2.90 3.37 3.51 3.51 3.53 3.72 4.03 4.24 4.46 4.92 5.22 5.48 5.72 5.92 5.95 5.52 5.32 5.21 5.10 5.02 5.05 4.95 4.75 4.56 4.36 4.17 4.09 3.90 3.56 3.45
0.12 0.18 0.23 0.25 0.23 0.31 0.51 0.79 0.95 1.05 1.17 1.31 1.52 1.72 1.84 2.05 2.39 2.46 2.55 2.91 3.23 3.39 3.47 3.60 3.83 4.26 4.80 5.18 5.65 6.06 6.21 6.25 6.11 5.85 5.74 5.59 5.43 5.27 5.11 4.98 4.75 4.60 4.47 4.30 4.10 3.92 3.81 3.58 3.44
0.11 0.13 0.20 0.19 0.22 0.33 0.46 0.86 1.20 1.30 1.43 1.69 1.91 1.92 2.01 2.18 2.36 2.48 2.64 2.89 3.18 3.39 3.50 3.82 4.30 4.89 5.44 5.93 6.47 6.95 7.05 6.89 6.59 6.13 5.71 5.46 5.22 4.90 4.66 4.53 4.41 4.24 3.94 3.70 3.54 3.45 3.30 3.18 3.04
0.11 0.10 0.17 0.18 0.16 0.29 0.42 0.73 1.45 1.63 1.74 1.98 2.20 2.00 1.96 1.96 2.02 2.26 2.44 2.63 3.01 3.20 3.39 3.75 4.30 4.98 5.67 6.49 7.19 7.62 7.54 7.20 6.76 6.08 5.50 5.04 4.63 4.27 4.01 3.87 3.70 3.49 3.14 2.79 2.65 2.72 2.80 2.81 2.74
0.10 0.11 0.15 0.17 0.19 0.33 0.34 0.63 1.35 1.81 2.02 2.14 2.08 1.90 1.86 1.76 1.75 1.87 1.97 2.22 2.53 2.82 3.11 3.52 4.12 4.82 5.47 6.12 6.66 6.90 6.80 6.60 6.07 5.38 4.75 4.35 4.02 3.67 3.32 3.01 2.74 2.51 2.35 2.16 2.11 2.13 2.21 2.40 2.52
0.10 0.13 0.33 0.45 0.49 0.49 0.39 0.67 1.32 1.71 1.86 1.80 1.73 1.76 1.65 1.65 1.64 1.63 1.67 1.88 2.20 2.41 2.78 3.20 3.63 4.26 4.68 5.02 5.44 5.63 5.65 5.43 5.13 4.65 4.18 3.74 3.26 2.91 2.63 2.35 2.22 2.07 1.96 1.90 1.88 1.84 1.80 1.91 2.09
0.10 0.11 0.35 0.60 0.58 0.59 0.61 1.01 1.55 1.62 1.59 1.51 1.45 1.48 1.51 1.52 1.51 1.55 1.65 1.81 2.07 2.21 2.40 2.62 2.92 3.29 3.46 3.51 3.75 3.98 4.00 3.95 3.83 3.54 3.22 2.93 2.57 2.19 1.95 1.75 1.63 1.61 1.65 1.59 1.62 1.61 1.61 1.63 1.70
0.08 0.09 0.15 0.32 0.37 0.65 0.98 1.41 1.87 1.75 1.69 1.61 1.58 1.43 1.37 1.34 1.38 1.49 1.58 1.58 1.63 1.73 1.85 1.94 2.11 2.28 2.37 2.45 2.50 2.63 2.65 2.64 2.56 2.40 2.17 1.98 1.82 1.59 1.43 1.33 1.33 1.31 1.33 1.38 1.37 1.33 1.36 1.45 1.50
0.08 0.13 0.19 0.35 0.63 0.88 1.19 1.77 2.35 2.28 1.93 1.65 1.47 1.26 1.14 1.19 1.27 1.36 1.44 1.43 1.43 1.43 1.52 1.59 1.66 1.73 1.77 1.84 1.80 1.80 1.81 1.82 1.77 1.64 1.57 1.48 1.36 1.25 1.24 1.17 1.11 1.04 1.03 1.04 1.08 1.11 1.15 1.20 1.28
0.15 0.19 0.26 0.38 0.47 0.84 1.34 2.07 2.27 2.45 2.35 1.91 1.58 1.39 1.26 1.18 1.16 1.24 1.24 1.23 1.22 1.23 1.28 1.35 1.38 1.37 1.37 1.36 1.33 1.32 1.29 1.29 1.33 1.33 1.28 1.20 1.11 1.01 0.97 0.88 0.82 0.79 0.82 0.88 0.93 0.96 1.01 1.05 1.09
0.16 0.21 0.30 0.59 0.66 0.67 1.27 2.27 2.26 2.51 2.58 2.28 1.95 1.76 1.64 1.37 1.26 1.27 1.19 1.12 1.06 1.08 1.09 1.15 1.16 1.15 1.20 1.11 1.01 1.03 1.00 1.00 1.03 1.06 0.98 0.94 0.92 0.84 0.76 0.66 0.64 0.64 0.68 0.72 0.75 0.78 0.81 0.91 0.94

GEFSSGP_prec_meanprecacc_234.txt.gz
Total_Precipitation_Accumulation
0.00 0.00 0.01 0.02 0.06 0.14 0.28 0.30 0.36 0.49 0.53 0.49 0.49 0.55 0.64 0.68 0.84 1.54 0.95 0.43 0.31 0.22 0.24 0.24 0.24 0.25 0.25 0.26 0.30 0.31 0.30 0.28 0.26 0.24 0.24 0.25 0.26 0.26 0.26 0.31 0.45 0.50 0.48 0.43 0.41 0.42 0.40 0.37 0.34
0.01 0.01 0.02 0.03 0.09 0.25 0.32 0.31 0.39 0.49 0.46 0.40 0.44 0.49 0.48 0.49 0.48 0.48 0.56 0.39 0.29 0.23 0.24 0.20 0.20 0.21 0.23 0.22 0.23 0.28 0.30 0.29 0.26 0.23 0.26 0.27 0.28 0.30 0.30 0.33 0.47 0.66 0.66 0.62 0.53 0.46 0.43 0.39 0.34
0.01 0.02 0.03 0.03 0.10 0.28 0.36 0.33 0.38 0.43 0.37 0.42 0.47 0.52 0.55 0.56 0.51 0.48 0.47 0.30 0.29 0.27 0.23 0.21 0.19 0.20 0.21 0.20 0.23 0.29 0.34 0.40 0.35 0.31 0.30 0.28 0.28 0.30 0.34 0.39 0.45 0.66 0.71 0.68 0.61 0.56 0.51 0.45 0.39
0.01 0.02 0.02 0.04 0.13 0.23 0.32 0.36 0.46 0.52 0.41 0.43 0.45 0.60 0.67 0.57 0.56 0.52 0.46 0.38 0.30 0.31 0.29 0.22 0.20 0.20 0.21 0.23 0.23 0.27 0.42 0.46 0.40 0.37 0.35 0.33 0.34 0.34 0.39 0.48 0.53 0.53 0.58 0.62 0.66 0.68 0.58 0.46 0.40
0.02 0.03 0.03 0.06 0.13 0.21 0.34 0.42 0.58 0.60 0.43 0.39 0.46 0.75 0.90 0.81 0.74 0.70 0.58 0.50 0.40 0.35 0.39 0.29 0.26 0.27 0.27 0.26 0.25 0.29 0.39 0.44 0.45 0.46 0.44 0.40 0.40 0.41 0.47 0.55 0.60 0.60 0.64 0.65 0.64 0.69 0.62 0.52 0.48
0.02 0.02 0.05 0.09 0.14 0.23 0.28 0.42 0.48 0.55 0.48 0.43 0.58 0.98 1.33 1.32 1.22 1.10 0.94 0.67 0.52 0.42 0.49 0.44 0.36 0.32 0.32 0.31 0.30 0.34 0.42 0.49 0.53 0.52 0.45 0.43 0.44 0.46 0.51 0.56 0.59 0.64 0.67 0.62 0.57 0.60 0.62 0.62 0.59
0.02 0.03 0.06 0.10 0.17 0.24 0.29 0.45 0.51 0.57 0.55 0.57 0.78 1.03 1.33 1.48 1.50 1.39 1.23 0.95 0.89 0.78 0.82 0.74 0.55 0.47 0.45 0.48 0.48 0.44 0.44 0.48 0.55 0.57 0.50 0.46 0.47 0.48 0.50 0.53 0.56 0.58 0.59 0.59 0.56 0.58 0.56 0.58 0.59
0.02 0.03 0.05 0.11 0.20 0.27 0.36 0.55 0.53 0.52 0.58 0.67 0.94 1.17 1.50 1.49 1.30 1.42 1.41 1.24 1.24 1.28 1.26 0.90 0.70 0.68 0.72 0.72 0.66 0.59 0.54 0.54 0.55 0.55 0.57 0.54 0.51 0.53 0.59 0.54 0.57 0.58 0.60 0.58 0.56 0.57 0.57 0.58 0.62
0.04 0.03 0.06 0.14 0.23 0.28 0.30 0.47 0.47 0.40 0.45 0.64 0.93 1.07 1.23 1.17 1.15 1.42 1.52 1.65 1.72 1.54 1.35 1.20 0.98 0.91 0.90 0.83 0.71 0.71 0.68 0.66 0.67 0.67 0.64 0.64 0.64 0.75 0.80 0.69 0.74 0.71 0.69 0.63 0.64 0.66 0.65 0.65 0.65
0.02 0.03 0.06 0.12 0.16 0.23 0.30 0.42 0.39 0.44 0.48 0.60 0.76 0.99 1.21 1.15 1.33 1.49 1.61 1.94 1.85 1.76 1.57 1.46 1.35 1.17 1.08 0.92 0.97 0.97 0.91 0.91 0.88 0.99 0.92 0.97 1.15 1.26 1.15 1.26 1.17 1.04 0.94 0.87 0.89 0.92 0.83 0.74 0.69
0.03 0.04 0.07 0.12 0.13 0.20 0.31 0.40 0.39 0.51 0.67 0.94 1.05 1.09 1.16 1.18 1.41 1.64 1.88 2.21 2.25 2.01 1.69 1.64 1.61 1.59 1.55 1.54 1.39 1.30 1.31 1.37 1.32 1.44 1.35 1.43 1.52 1.48 1.52 1.64 1.47 1.33 1.25 1.21 1.28 1.16 0.92 0.89 0.98
0.06 0.07 0.12 0.12 0.16 0.25 0.39 0.48 0.64 0.71 0.85 1.09 1.17 1.13 1.24 1.33 1.48 1.66 1.92 2.21 2.44 2.34 2.12 2.11 1.90 1.85 1.92 2.11 2.03 1.67 1.58 1.60 1.56 1.77 1.70 1.83 1.97 1.96 2.05 2.09 1.88 1.82 1.80 1.80 1.69 1.58 1.40 1.29 1.26
0.07 0.09 0.12 0.11 0.19 0.31 0.47 0.51 0.62 0.61 0.53 0.81 1.04 1.16 1.29 1.28 1.46 1.64 1.96 2.50 2.78 2.77 2.58 2.54 2.42 2.32 2.37 2.61 2.64 2.12 1.98 2.10 2.31 2.40 2.21 2.21 2.21 2.26 2.45 2.41 2.32 2.22 2.29 2.23 2.08 1.89 1.90 1.85 1.68
0.04 0.06 0.08 0.12 0.18 0.26 0.39 0.40 0.51 0.69 0.63 0.75 0.89 1.08 1.29 1.53 1.79 2.04 2.33 2.77 3.06 3.16 3.01 2.90 2.81 2.78 2.73 2.82 2.85 2.82 2.57 2.61 2.79 2.87 2.82 2.64 2.64 2.81 2.97 2.92 2.74 2.50 2.48 2.44 2.37 2.31 2.37 2.30 2.24
0.06 0.06 0.10 0.15 0.21 0.25 0.30 0.47 0.60 0.72 0.77 0.85 0.92 1.06 1.31 1.60 1.88 2.15 2.65 2.95 3.02 3.05 2.99 3.06 3.00 3.06 3.11 3.18 3.09 3.17 3.16 3.21 3.34 3.36 3.17 2.97 2.96 3.29 3.36 3.36 3.08 2.84 2.80 2.92 2.86 2.78 2.76 2.51 2.42
0.10 0.10 0.15 0.19 0.22 0.28 0.27 0.54 0.71 0.60 0.63 0.78 0.95 1.10 1.22 1.42 1.84 2.22 2.62 2.84 3.00 3.36 3.37 3.34 3.32 3.37 3.44 3.46 3.39 3.40 3.40 3.70 3.77 3.76 3.64 3.36 3.29 3.40 3.48 3.47 3.33 3.19 3.12 3.35 3.46 3.38 3.29 3.11 3.02
0.13 0.16 0.19 0.22 0.22 0.26 0.29 0.52 0.68 0.66 0.65 0.79 1.13 1.38 1.35 1.51 1.95 2.39 2.72 2.96 3.11 3.29 3.47 3.42 3.47 3.64 3.63 3.65 3.50 3.65 3.84 3.86 3.80 3.78 3.81 3.76 3.69 3.75 3.79 3.70 3.69 3.71 3.78 3.76 3.54 3.64 3.50 3.49 3.38
0.16 0.16 0.19 0.24 0.26 0.24 0.30 0.50 0.70 0.79 0.95 1.01 1.18 1.39 1.52 1.60 1.79 2.15 2.63 3.07 3.20 3.23 3.19 3.31 3.36 3.50 3.59 3.81 3.81 3.86 4.01 4.17 4.32 4.44 4.46 4.22 4.20 4.16 4.37 4.33 4.25 4.24 4.21 4.00 3.92 3.89 3.70 3.52 3.39
0.15 0.18 0.22 0.25 0.25 0.30 0.37 0.51 0.75 0.91 1.09 1.07 1.11 1.22 1.35 1.64 1.83 2.16 2.51 2.82 3.34 3.35 3.21 3.30 3.46 3.66 3.76 4.03 4.12 4.35 4.69 4.91 5.06 5.09 4.96 4.93 4.83 4.95 5.00 4.79 4.58 4.44 4.43 4.34 4.30 4.09 3.87 3.61 3.49
0.18 0.27 0.30 0.27 0.25 0.33 0.48 0.63 0.81 0.96 1.03 1.00 1.10 1.29 1.43 1.84 2.19 2.34 2.53 2.94 3.42 3.56 3.55 3.57 3.76 4.07 4.29 4.52 4.97 5.27 5.53 5.77 5.97 5.99 5.56 5.36 5.25 5.15 5.08 5.11 5.01 4.81 4.63 4.42 4.23 4.16 3.98 3.64 3.56
0.13 0.19 0.24 0.26 0.25 0.34 0.54 0.82 0.97 1.06 1.18 1.32 1.52 1.73 1.85 2.06 2.41 2.48 2.57 2.93 3.26 3.43 3.50 3.62 3.87 4.30 4.84 5.22 5.68 6.11 6.26 6.29 6.16 5.91 5.78 5.64 5.47 5.31 5.16 5.03 4.81 4.67 4.54 4.35 4.15 3.98 3.88 3.65 3.52
0.11 0.14 0.20 0.21 0.25 0.37 0.48 0.91 1.24 1.32 1.45 1.71 1.92 1.94 2.03 2.20 2.38 2.49 2.65 2.90 3.19 3.41 3.52 3.84 4.34 4.93 5.48 5.96 6.49 6.99 7.10 6.93 6.64 6.18 5.76 5.52 5.27 4.94 4.71 4.58 4.47 4.30 3.99 3.75 3.59 3.50 3.36 3.24 3.10
0.12 0.10 0.17 0.19 0.20 0.33 0.46 0.81 1.56 1.68 1.77 2.00 2.21 2.01 1.98 1.98 2.03 2.27 2.45 2.65 3.03 3.22 3.43 3.77 4.34 5.02 5.71 6.54 7.23 7.67 7.58 7.25 6.81 6.13 5.55 5.09 4.70 4.33 4.06 3.93 3.76 3.54 3.19 2.84 2.71 2.77 2.85 2.86 2.80
0.10 0.11 0.15 0.18 0.23 0.39 0.39 0.72 1.47 1.88 2.06 2.16 2.09 1.91 1.87 1.79 1.78 1.90 2.02 2.25 2.56 2.85 3.15 3.56 4.18 4.88 5.52 6.16 6.70 6.94 6.85 6.65 6.12 5.44 4.82 4.42 4.09 3.74 3.38 3.06 2.79 2.56 2.40 2.21 2.17 2.20 2.28 2.48 2.60
0.10 0.15 0.37 0.50 0.54 0.57 0.44 0.74 1.41 1.74 1.87 1.80 1.74 1.78 1.67 1.68 1.66 1.66 1.71 1.91 2.24 2.44 2.81 3.25 3.69 4.32 4.73 5.06 5.48 5.67 5.70 5.48 5.19 4.71 4.24 3.80 3.31 2.97 2.69 2.40 2.27 2.13 2.01 1.95 1.95 1.94 1.90 2.00 2.18
0.11 0.13 0.40 0.65 0.62 0.64 0.63 1.06 1.59 1.63 1.59 1.51 1.46 1.50 1.53 1.54 1.53 1.58 1.68 1.84 2.10 2.24 2.42 2.64 2.95 3.33 3.50 3.55 3.78 4.03 4.05 4.00 3.88 3.59 3.27 2.98 2.63 2.25 2.01 1.81 1.69 1.66 1.69 1.64 1.68 1.69 1.69 1.70 1.78
0.09 0.12 0.18 0.36 0.42 0.71 1.02 1.45 1.89 1.76 1.69 1.61 1.58 1.43 1.38 1.36 1.39 1.51 1.60 1.61 1.65 1.75 1.87 1.97 2.14 2.31 2.40 2.48 2.54 2.68 2.70 2.69 2.61 2.45 2.22 2.02 1.87 1.64 1.50 1.40 1.38 1.36 1.38 1.44 1.44 1.40 1.43 1.52 1.56
0.09 0.15 0.23 0.40 0.69 0.95 1.25 1.82 2.38 2.29 1.94 1.66 1.47 1.26 1.16 1.20 1.28 1.37 1.46 1.46 1.46 1.46 1.56 1.63 1.70 1.78 1.81 1.88 1.85 1.84 1.85 1.86 1.81 1.68 1.61 1.53 1.42 1.32 1.31 1.24 1.18 1.10 1.09 1.10 1.14 1.17 1.20 1.25 1.34
0.16 0.21 0.30 0.43 0.52 0.90 1.40 2.13 2.30 2.47 2.35 1.93 1.60 1.41 1.29 1.20 1.18 1.25 1.25 1.25 1.24 1.26 1.32 1.41 1.43 1.41 1.41 1.40 1.38 1.36 1.32 1.32 1.36 1.38 1.33 1.26 1.18 1.08 1.05 0.95 0.88 0.85 0.88 0.93 0.98 1.02 1.06 1.10 1.15
0.17 0.21 0.32 0.62 0.68 0.69 1.31 2.31 2.27 2.52 2.59 2.30 1.98 1.79 1.67 1.39 1.27 1.27 1.20 1.14 1.09 1.09 1.13 1.20 1.21 1.20 1.24 1.16 1.06 1.07 1.05 1.04 1.09 1.12 1.04 1.00 0.98 0.92 0.85 0.74 0.71 0.70 0.73 0.78 0.81 0.85 0.88 0.98 1.00

GEFSSGP_prec_meanprecacc_240.txt.gz
Total_Precipitation_Accumulation
0.00 0.00 0.01 0.02 0.08 0.19 0.33 0.34 0.41 0.53 0.57 0.51 0.50 0.56 0.67 0.71 0.87 1.57 1.01 0.48 0.33 0.24 0.25 0.27 0.26 0.27 0.29 0.29 0.33 0.33 0.32 0.31 0.28 0.27 0.27 0.27 0.29 0.29 0.30 0.34 0.49 0.55 0.53 0.46 0.44 0.45 0.42 0.39 0.38
0.01 0.01 0.02 0.03 0.10 0.30 0.37 0.35 0.43 0.53 0.48 0.42 0.46 0.52 0.51 0.51 0.49 0.51 0.61 0.43 0.30 0.24 0.25 0.21 0.21 0.24 0.27 0.25 0.25 0.29 0.32 0.32 0.28 0.26 0.28 0.29 0.30 0.32 0.33 0.36 0.51 0.70 0.70 0.66 0.57 0.50 0.46 0.42 0.38
0.01 0.02 0.03 0.03 0.12 0.33 0.43 0.40 0.45 0.46 0.40 0.44 0.50 0.54 0.58 0.59 0.53 0.50 0.49 0.31 0.31 0.28 0.23 0.22 0.20 0.21 0.22 0.22 0.25 0.31 0.36 0.41 0.37 0.32 0.31 0.30 0.29 0.32 0.35 0.40 0.48 0.69 0.75 0.72 0.65 0.60 0.54 0.48 0.41
0.02 0.03 0.03 0.05 0.14 0.27 0.36 0.40 0.50 0.56 0.49 0.49 0.47 0.62 0.69 0.59 0.58 0.54 0.48 0.39 0.32 0.32 0.29 0.23 0.21 0.22 0.23 0.25 0.25 0.28 0.44 0.47 0.41 0.38 0.36 0.34 0.36 0.35 0.41 0.50 0.55 0.55 0.61 0.65 0.69 0.72 0.62 0.49 0.42
0.03 0.03 0.04 0.07 0.16 0.23 0.36 0.45 0.60 0.66 0.52 0.46 0.48 0.77 0.91 0.83 0.76 0.72 0.61 0.54 0.41 0.36 0.40 0.30 0.28 0.28 0.29 0.27 0.27 0.31 0.40 0.45 0.46 0.47 0.45 0.41 0.41 0.43 0.49 0.57 0.62 0.62 0.66 0.68 0.68 0.73 0.65 0.56 0.51
0.02 0.03 0.05 0.10 0.15 0.24 0.31 0.45 0.50 0.57 0.53 0.46 0.60 0.99 1.35 1.35 1.26 1.16 1.02 0.75 0.54 0.43 0.50 0.45 0.38 0.34 0.34 0.33 0.32 0.36 0.44 0.51 0.55 0.53 0.47 0.45 0.45 0.48 0.53 0.59 0.61 0.66 0.69 0.65 0.61 0.65 0.65 0.65 0.62
0.02 0.03 0.06 0.11 0.18 0.26 0.32 0.47 0.53 0.59 0.58 0.60 0.81 1.06 1.37 1.51 1.55 1.45 1.31 1.03 0.92 0.81 0.84 0.76 0.58 0.50 0.46 0.49 0.50 0.46 0.46 0.49 0.56 0.58 0.51 0.48 0.49 0.50 0.52 0.55 0.58 0.60 0.61 0.62 0.59 0.61 0.60 0.61 0.63
0.03 0.03 0.05 0.12 0.21 0.28 0.37 0.56 0.54 0.54 0.61 0.70 0.96 1.21 1.55 1.51 1.34 1.48 1.48 1.32 1.29 1.34 1.30 0.94 0.74 0.71 0.74 0.73 0.67 0.60 0.55 0.55 0.56 0.56 0.57 0.54 0.52 0.55 0.60 0.56 0.60 0.61 0.63 0.60 0.58 0.59 0.60 0.61 0.66
0.04 0.04 0.06 0.14 0.23 0.29 0.32 0.50 0.48 0.42 0.49 0.67 0.95 1.09 1.27 1.21 1.18 1.47 1.58 1.72 1.79 1.61 1.41 1.25 1.02 0.94 0.92 0.84 0.73 0.73 0.70 0.67 0.68 0.67 0.65 0.66 0.65 0.76 0.81 0.71 0.78 0.75 0.73 0.66 0.67 0.68 0.68 0.68 0.68
0.02 0.03 0.06 0.13 0.17 0.24 0.32 0.44 0.40 0.45 0.51 0.65 0.78 1.03 1.25 1.18 1.36 1.54 1.68 2.05 1.96 1.83 1.63 1.54 1.42 1.24 1.15 0.95 1.00 1.04 0.98 0.94 0.90 1.00 0.95 0.99 1.17 1.28 1.17 1.28 1.21 1.08 0.98 0.92 0.93 0.95 0.87 0.77 0.71
0.03 0.04 0.08 0.12 0.14 0.20 0.31 0.41 0.41 0.52 0.70 0.99 1.08 1.12 1.19 1.21 1.44 1.69 1.92 2.26 2.31 2.07 1.74 1.69 1.66 1.66 1.66 1.60 1.43 1.33 1.34 1.38 1.33 1.46 1.38 1.46 1.56 1.51 1.56 1.67 1.50 1.36 1.28 1.25 1.31 1.20 0.95 0.91 0.99
0.06 0.07 0.12 0.12 0.16 0.25 0.40 0.49 0.65 0.72 0.87 1.12 1.21 1.18 1.27 1.36 1.52 1.70 1.95 2.25 2.48 2.39 2.18 2.17 1.96 1.90 1.97 2.15 2.06 1.69 1.59 1.61 1.58 1.79 1.73 1.88 2.01 2.00 2.10 2.12 1.90 1.84 1.82 1.83 1.71 1.61 1.41 1.30 1.27
0.07 0.09 0.12 0.11 0.20 0.31 0.47 0.51 0.63 0.62 0.55 0.84 1.08 1.21 1.34 1.33 1.51 1.69 2.01 2.55 2.83 2.82 2.64 2.61 2.48 2.36 2.40 2.63 2.66 2.14 2.00 2.12 2.35 2.43 2.25 2.24 2.25 2.31 2.49 2.44 2.34 2.23 2.31 2.24 2.10 1.91 1.93 1.87 1.69
0.04 0.06 0.09 0.12 0.18 0.26 0.40 0.40 0.52 0.69 0.64 0.78 0.96 1.17 1.36 1.58 1.85 2.11 2.39 2.82 3.12 3.24 3.10 2.97 2.89 2.84 2.77 2.85 2.87 2.83 2.58 2.63 2.82 2.91 2.85 2.65 2.66 2.82 2.98 2.94 2.77 2.52 2.50 2.46 2.38 2.32 2.38 2.31 2.25
0.06 0.07 0.10 0.15 0.22 0.26 0.30 0.48 0.61 0.73 0.79 0.91 1.05 1.18 1.39 1.68 1.97 2.25 2.72 3.01 3.06 3.11 3.09 3.16 3.07 3.16 3.23 3.24 3.12 3.21 3.20 3.25 3.38 3.39 3.20 2.98 2.98 3.30 3.37 3.38 3.10 2.86 2.82 2.95 2.88 2.80 2.77 2.52 2.43
0.10 0.11 0.15 0.19 0.22 0.28 0.28 0.56 0.73 0.62 0.66 0.88 1.12 1.21 1.29 1.49 1.91 2.30 2.70 2.89 3.04 3.39 3.42 3.40 3.38 3.44 3.61 3.59 3.45 3.45 3.45 3.74 3.81 3.79 3.66 3.38 3.31 3.42 3.50 3.49 3.35 3.20 3.14 3.38 3.49 3.40 3.31 3.13 3.04
0.14 0.17 0.19 0.23 0.22 0.27 0.30 0.55 0.71 0.68 0.68 0.88 1.26 1.47 1.43 1.55 2.00 2.44 2.77 3.01 3.15 3.32 3.50 3.47 3.52 3.69 3.70 3.75 3.58 3.70 3.89 3.90 3.83 3.82 3.85 3.79 3.72 3.77 3.80 3.71 3.70 3.73 3.80 3.79 3.57 3.66 3.54 3.53 3.41
0.17 0.19 0.20 0.25 0.27 0.25 0.31 0.53 0.74 0.82 0.98 1.07 1.24 1.45 1.61 1.66 1.84 2.20 2.66 3.10 3.24 3.25 3.21 3.34 3.40 3.54 3.63 3.86 3.86 3.90 4.05 4.20 4.34 4.47 4.50 4.27 4.22 4.18 4.38 4.34 4.27 4.26 4.23 4.03 3.96 3.94 3.75 3.58 3.45
0.17 0.21 0.24 0.27 0.27 0.33 0.41 0.56 0.80 0.94 1.13 1.12 1.15 1.28 1.41 1.69 1.89 2.21 2.56 2.87 3.38 3.39 3.24 3.32 3.49 3.69 3.79 4.07 4.16 4.38 4.72 4.93 5.08 5.12 5.00 4.97 4.86 4.97 5.02 4.81 4.60 4.47 4.46 4.37 4.33 4.14 3.92 3.66 3.54
0.20 0.30 0.34 0.31 0.27 0.36 0.52 0.68 0.87 1.00 1.10 1.06 1.14 1.32 1.47 1.88 2.24 2.40 2.59 3.00 3.48 3.62 3.60 3.60 3.79 4.11 4.32 4.56 5.02 5.31 5.56 5.79 5.99 6.02 5.58 5.38 5.27 5.17 5.10 5.12 5.03 4.84 4.66 4.46 4.28 4.20 4.03 3.69 3.60
0.14 0.22 0.27 0.29 0.28 0.37 0.58 0.87 1.02 1.12 1.25 1.42 1.61 1.77 1.90 2.12 2.47 2.53 2.60 2.95 3.29 3.47 3.56 3.66 3.91 4.33 4.87 5.26 5.74 6.15 6.30 6.32 6.19 5.93 5.80 5.65 5.48 5.32 5.17 5.05 4.83 4.68 4.56 4.39 4.19 4.02 3.91 3.69 3.56
0.15 0.16 0.24 0.25 0.31 0.42 0.54 0.98 1.32 1.41 1.53 1.81 2.01 1.98 2.08 2.25 2.44 2.53 2.67 2.92 3.21 3.42 3.54 3.86 4.36 4.96 5.51 6.00 6.56 7.05 7.13 6.95 6.65 6.20 5.77 5.54 5.28 4.96 4.73 4.61 4.50 4.32 4.01 3.78 3.63 3.55 3.40 3.28 3.13
0.14 0.12 0.20 0.24 0.28 0.38 0.53 0.91 1.70 1.83 1.86 2.09 2.27 2.04 2.03 2.03 2.10 2.34 2.50 2.68 3.06 3.25 3.46 3.80 4.37 5.05 5.74 6.56 7.25 7.69 7.60 7.26 6.83 6.14 5.56 5.10 4.71 4.36 4.10 3.97 3.81 3.59 3.22 2.87 2.74 2.82 2.90 2.91 2.84
0.11 0.12 0.17 0.22 0.29 0.45 0.46 0.79 1.56 1.98 2.12 2.21 2.12 1.94 1.90 1.83 1.83 1.96 2.10 2.33 2.63 2.93 3.21 3.62 4.23 4.91 5.55 6.19 6.72 6.96 6.87 6.67 6.14 5.45 4.83 4.43 4.10 3.76 3.41 3.10 2.85 2.62 2.45 2.26 2.21 2.25 2.34 2.54 2.65
0.11 0.16 0.39 0.54 0.61 0.62 0.49 0.80 1.49 1.79 1.92 1.84 1.78 1.81 1.70 1.75 1.71 1.71 1.79 1.99 2.30 2.48 2.85 3.29 3.73 4.36 4.76 5.09 5.52 5.70 5.73 5.51 5.20 4.72 4.25 3.81 3.32 2.98 2.70 2.43 2.32 2.19 2.08 2.01 2.00 1.98 1.94 2.06 2.25
0.12 0.14 0.44 0.71 0.70 0.70 0.68 1.12 1.64 1.68 1.63 1.54 1.48 1.52 1.56 1.59 1.61 1.61 1.73 1.90 2.16 2.27 2.45 2.68 3.00 3.37 3.54 3.58 3.82 4.08 4.09 4.04 3.91 3.61 3.29 2.99 2.64 2.26 2.02 1.83 1.72 1.71 1.76 1.70 1.73 1.74 1.73 1.74 1.82
0.11 0.13 0.20 0.40 0.49 0.81 1.10 1.52 1.94 1.79 1.72 1.64 1.60 1.45 1.40 1.38 1.42 1.53 1.62 1.65 1.70 1.78 1.89 1.99 2.18 2.35 2.44 2.52 2.59 2.73 2.75 2.73 2.66 2.48 2.23 2.04 1.89 1.65 1.51 1.43 1.41 1.40 1.43 1.49 1.49 1.45 1.47 1.54 1.58
0.10 0.16 0.24 0.43 0.79 1.05 1.34 1.89 2.44 2.33 1.97 1.68 1.49 1.29 1.19 1.23 1.30 1.39 1.47 1.48 1.49 1.49 1.58 1.65 1.73 1.80 1.85 1.92 1.89 1.87 1.89 1.89 1.86 1.71 1.64 1.55 1.43 1.33 1.33 1.26 1.20 1.14 1.13 1.15 1.19 1.22 1.25 1.29 1.35
0.17 0.22 0.32 0.47 0.59 0.97 1.48 2.20 2.34 2.53 2.41 1.95 1.61 1.44 1.31 1.23 1.20 1.27 1.27 1.26 1.27 1.29 1.35 1.43 1.45 1.44 1.44 1.44 1.42 1.40 1.36 1.35 1.39 1.40 1.35 1.28 1.20 1.10 1.07 0.97 0.91 0.88 0.91 0.97 1.02 1.06 1.11 1.15 1.18
0.18 0.23 0.34 0.65 0.73 0.73 1.36 2.37 2.30 2.56 2.62 2.32 2.00 1.82 1.69 1.40 1.29 1.29 1.22 1.16 1.11 1.12 1.16 1.23 1.24 1.23 1.27 1.19 1.09 1.11 1.08 1.07 1.11 1.14 1.06 1.01 1.00 0.93 0.87 0.76 0.73 0.72 0.76 0.82 0.85 0.88 0.92 1.01 1.02

GEFSSGP_prec_meanprecacc_246.txt.gz
Total_Precipitation_Accumulation
0.00 0.00 0.01 0.02 0.09 0.20 0.33 0.34 0.42 0.54 0.59 0.53 0.51 0.57 0.68 0.72 0.89 1.59 1.02 0.48 0.34 0.26 0.28 0.33 0.31 0.30 0.31 0.31 0.35 0.35 0.35 0.33 0.33 0.32 0.32 0.31 0.35 0.35 0.35 0.41 0.58 0.63 0.58 0.50 0.48 0.48 0.45 0.42 0.41
0.01 0.01 0.02 0.03 0.12 0.32 0.38 0.36 0.43 0.53 0.49 0.43 0.47 0.53 0.52 0.52 0.50 0.53 0.61 0.43 0.31 0.24 0.28 0.28 0.27 0.28 0.29 0.27 0.27 0.32 0.34 0.34 0.31 0.30 0.33 0.33 0.36 0.39 0.38 0.42 0.57 0.75 0.76 0.72 0.62 0.55 0.50 0.46 0.43
0.01 0.02 0.03 0.03 0.13 0.34 0.44 0.41 0.46 0.47 0.41 0.45 0.52 0.56 0.59 0.60 0.54 0.50 0.50 0.32 0.31 0.28 0.26 0.28 0.23 0.23 0.24 0.24 0.28 0.34 0.38 0.43 0.39 0.35 0.35 0.34 0.33 0.36 0.40 0.45 0.53 0.73 0.81 0.79 0.70 0.65 0.60 0.53 0.47
0.02 0.03 0.03 0.05 0.15 0.28 0.37 0.41 0.51 0.56 0.50 0.50 0.50 0.64 0.71 0.60 0.59 0.54 0.49 0.41 0.34 0.33 0.32 0.26 0.24 0.24 0.25 0.28 0.28 0.31 0.46 0.50 0.44 0.40 0.39 0.37 0.39 0.38 0.45 0.54 0.58 0.59 0.65 0.70 0.75 0.77 0.68 0.55 0.48
0.03 0.03 0.04 0.07 0.16 0.24 0.37 0.45 0.60 0.67 0.53 0.48 0.50 0.79 0.93 0.85 0.77 0.73 0.62 0.56 0.43 0.37 0.41 0.33 0.30 0.31 0.31 0.31 0.30 0.34 0.43 0.48 0.49 0.50 0.48 0.44 0.43 0.45 0.52 0.61 0.65 0.65 0.69 0.71 0.74 0.79 0.73 0.63 0.59
0.03 0.03 0.05 0.10 0.15 0.24 0.32 0.45 0.50 0.57 0.53 0.47 0.61 1.01 1.37 1.37 1.28 1.18 1.04 0.77 0.56 0.45 0.52 0.47 0.41 0.37 0.37 0.37 0.35 0.39 0.46 0.53 0.57 0.56 0.50 0.48 0.49 0.51 0.56 0.62 0.65 0.70 0.74 0.70 0.68 0.71 0.72 0.72 0.69
0.02 0.03 0.06 0.11 0.18 0.26 0.33 0.47 0.54 0.59 0.58 0.60 0.82 1.07 1.39 1.53 1.58 1.47 1.34 1.06 0.96 0.84 0.86 0.78 0.61 0.53 0.50 0.53 0.53 0.49 0.49 0.52 0.58 0.61 0.54 0.51 0.52 0.53 0.55 0.58 0.61 0.63 0.65 0.68 0.67 0.68 0.65 0.67 0.68
0.03 0.04 0.05 0.12 0.21 0.29 0.38 0.56 0.55 0.55 0.62 0.71 0.97 1.22 1.56 1.53 1.37 1.51 1.55 1.40 1.35 1.38 1.33 0.96 0.77 0.75 0.77 0.76 0.70 0.63 0.59 0.59 0.60 0.59 0.60 0.56 0.53 0.57 0.62 0.59 0.62 0.63 0.66 0.64 0.64 0.66 0.66 0.66 0.71
0.04 0.04 0.06 0.14 0.23 0.29 0.32 0.51 0.49 0.43 0.50 0.68 0.96 1.11 1.28 1.22 1.21 1.50 1.66 1.81 1.86 1.65 1.46 1.29 1.05 0.97 0.95 0.87 0.76 0.76 0.73 0.70 0.71 0.71 0.67 0.67 0.67 0.77 0.83 0.73 0.81 0.78 0.76 0.69 0.71 0.74 0.75 0.74 0.74
0.02 0.03 0.06 0.13 0.17 0.24 0.33 0.45 0.41 0.46 0.52 0.66 0.79 1.04 1.27 1.20 1.39 1.57 1.74 2.12 2.02 1.89 1.68 1.58 1.45 1.26 1.18 0.98 1.04 1.07 1.00 0.95 0.91 1.02 0.97 1.01 1.18 1.28 1.19 1.30 1.23 1.11 1.02 0.95 0.97 1.00 0.92 0.83 0.75
0.03 0.04 0.08 0.12 0.14 0.20 0.31 0.41 0.41 0.53 0.71 1.00 1.10 1.14 1.21 1.23 1.47 1.73 1.97 2.31 2.37 2.12 1.79 1.74 1.70 1.68 1.69 1.64 1.46 1.36 1.36 1.40 1.35 1.48 1.40 1.48 1.58 1.53 1.57 1.69 1.53 1.39 1.31 1.29 1.35 1.23 0.98 0.95 1.03
0.06 0.07 0.12 0.12 0.16 0.25 0.40 0.49 0.66 0.73 0.87 1.13 1.22 1.19 1.30 1.40 1.55 1.73 1.99 2.29 2.54 2.44 2.22 2.22 2.00 1.93 2.00 2.18 2.09 1.71 1.61 1.62 1.58 1.79 1.74 1.89 2.02 2.03 2.15 2.18 1.93 1.87 1.84 1.85 1.74 1.64 1.45 1.34 1.31
0.07 0.09 0.12 0.11 0.20 0.32 0.48 0.52 0.63 0.63 0.56 0.85 1.10 1.26 1.41 1.40 1.58 1.74 2.06 2.61 2.90 2.87 2.68 2.65 2.52 2.41 2.46 2.69 2.70 2.16 2.01 2.12 2.35 2.43 2.26 2.25 2.26 2.34 2.54 2.48 2.37 2.26 2.33 2.26 2.12 1.93 1.96 1.90 1.72
0.04 0.06 0.09 0.12 0.18 0.27 0.40 0.41 0.52 0.71 0.66 0.81 0.99 1.23 1.44 1.65 1.90 2.17 2.45 2.88 3.17 3.28 3.13 3.00 2.92 2.88 2.82 2.91 2.93 2.86 2.60 2.65 2.84 2.94 2.87 2.66 2.67 2.83 3.00 2.95 2.78 2.54 2.53 2.49 2.41 2.34 2.42 2.34 2.27
0.06 0.07 0.10 0.15 0.22 0.26 0.30 0.49 0.62 0.75 0.80 0.93 1.07 1.21 1.44 1.73 2.01 2.29 2.77 3.04 3.09 3.14 3.11 3.18 3.10 3.20 3.30 3.30 3.17 3.23 3.22 3.28 3.41 3.42 3.22 3.01 3.00 3.32 3.39 3.39 3.11 2.87 2.85 3.01 2.96 2.85 2.81 2.55 2.46
0.10 0.11 0.15 0.19 0.22 0.29 0.29 0.57 0.75 0.63 0.67 0.90 1.15 1.24 1.34 1.55 1.96 2.34 2.73 2.92 3.06 3.41 3.43 3.42 3.39 3.46 3.68 3.68 3.53 3.49 3.49 3.77 3.84 3.83 3.70 3.42 3.34 3.44 3.52 3.51 3.36 3.22 3.16 3.42 3.57 3.48 3.37 3.18 3.08
0.15 0.19 0.20 0.23 0.22 0.27 0.31 0.55 0.72 0.70 0.69 0.90 1.28 1.49 1.46 1.62 2.08 2.49 2.81 3.04 3.19 3.35 3.53 3.49 3.54 3.71 3.73 3.80 3.66 3.77 3.95 3.94 3.87 3.85 3.88 3.84 3.77 3.83 3.85 3.75 3.72 3.75 3.81 3.81 3.61 3.73 3.60 3.59 3.47
0.19 0.23 0.21 0.25 0.28 0.26 0.32 0.53 0.75 0.83 1.00 1.09 1.27 1.49 1.65 1.72 1.93 2.27 2.71 3.14 3.28 3.30 3.26 3.38 3.43 3.57 3.67 3.90 3.91 3.96 4.13 4.27 4.39 4.51 4.53 4.30 4.26 4.23 4.43 4.40 4.30 4.29 4.25 4.04 3.99 4.00 3.81 3.64 3.50
0.19 0.24 0.26 0.28 0.28 0.33 0.42 0.57 0.81 0.96 1.15 1.14 1.18 1.32 1.46 1.76 1.96 2.29 2.63 2.93 3.42 3.42 3.29 3.38 3.54 3.74 3.85 4.10 4.19 4.42 4.77 5.01 5.14 5.15 5.02 4.99 4.88 5.00 5.05 4.84 4.63 4.49 4.48 4.39 4.36 4.18 3.97 3.71 3.59
0.20 0.32 0.35 0.32 0.29 0.37 0.52 0.69 0.88 1.02 1.12 1.08 1.17 1.36 1.49 1.92 2.30 2.46 2.66 3.07 3.52 3.66 3.64 3.66 3.85 4.16 4.38 4.60 5.05 5.34 5.61 5.86 6.04 6.05 5.61 5.40 5.29 5.19 5.11 5.14 5.05 4.86 4.68 4.50 4.32 4.24 4.06 3.72 3.64
0.15 0.23 0.28 0.30 0.29 0.39 0.59 0.88 1.03 1.13 1.27 1.44 1.63 1.80 1.91 2.14 2.50 2.57 2.65 3.00 3.33 3.51 3.60 3.71 3.96 4.41 4.93 5.31 5.77 6.18 6.33 6.36 6.22 5.95 5.82 5.67 5.50 5.34 5.19 5.07 4.84 4.69 4.58 4.42 4.22 4.05 3.94 3.72 3.59
0.15 0.17 0.25 0.25 0.31 0.43 0.56 1.00 1.33 1.42 1.55 1.83 2.02 2.00 2.10 2.26 2.45 2.54 2.69 2.94 3.23 3.46 3.59 3.91 4.42 5.03 5.58 6.05 6.60 7.07 7.14 6.97 6.67 6.21 5.78 5.55 5.29 4.97 4.74 4.62 4.51 4.33 4.02 3.79 3.65 3.57 3.43 3.30 3.15
0.15 0.13 0.21 0.24 0.28 0.38 0.54 0.93 1.72 1.84 1.88 2.10 2.28 2.06 2.05 2.05 2.11 2.36 2.52 2.70 3.09 3.29 3.51 3.86 4.43 5.12 5.81 6.61 7.29 7.72 7.61 7.27 6.85 6.16 5.58 5.11 4.72 4.37 4.11 3.98 3.82 3.59 3.23 2.88 2.76 2.83 2.92 2.93 2.86
0.12 0.13 0.18 0.23 0.30 0.46 0.47 0.80 1.57 1.99 2.13 2.22 2.14 1.96 1.92 1.84 1.85 1.99 2.13 2.38 2.68 2.98 3.25 3.66 4.29 4.99 5.62 6.24 6.76 6.99 6.89 6.69 6.17 5.48 4.85 4.45 4.12 3.77 3.43 3.12 2.86 2.63 2.46 2.27 2.23 2.27 2.36 2.56 2.67
0.12 0.17 0.40 0.56 0.62 0.63 0.50 0.81 1.49 1.80 1.93 1.85 1.79 1.83 1.71 1.77 1.74 1.75 1.84 2.04 2.37 2.54 2.88 3.32 3.77 4.41 4.81 5.13 5.55 5.73 5.76 5.54 5.22 4.74 4.27 3.83 3.34 2.99 2.72 2.44 2.34 2.21 2.09 2.02 2.01 2.00 1.97 2.09 2.28
0.12 0.15 0.44 0.72 0.71 0.71 0.69 1.13 1.65 1.68 1.63 1.55 1.49 1.53 1.57 1.62 1.64 1.65 1.77 1.95 2.21 2.31 2.49 2.71 3.03 3.41 3.57 3.60 3.85 4.11 4.14 4.08 3.94 3.64 3.30 3.01 2.65 2.28 2.04 1.84 1.73 1.72 1.78 1.72 1.75 1.76 1.76 1.78 1.86
0.11 0.14 0.21 0.41 0.49 0.82 1.10 1.52 1.95 1.80 1.72 1.64 1.61 1.46 1.41 1.40 1.45 1.57 1.67 1.69 1.75 1.83 1.93 2.03 2.21 2.38 2.47 2.55 2.62 2.77 2.79 2.78 2.69 2.50 2.25 2.06 1.90 1.67 1.54 1.45 1.43 1.41 1.45 1.52 1.52 1.47 1.50 1.58 1.62
0.11 0.17 0.26 0.44 0.79 1.06 1.34 1.90 2.45 2.34 1.98 1.69 1.50 1.31 1.21 1.25 1.33 1.42 1.51 1.52 1.54 1.54 1.63 1.69 1.76 1.84 1.88 1.95 1.92 1.90 1.93 1.94 1.91 1.75 1.66 1.57 1.45 1.35 1.35 1.27 1.21 1.15 1.15 1.17 1.22 1.25 1.28 1.32 1.39
0.18 0.23 0.33 0.48 0.60 0.98 1.48 2.21 2.35 2.54 2.42 1.95 1.62 1.45 1.34 1.26 1.23 1.30 1.30 1.30 1.31 1.32 1.39 1.47 1.48 1.47 1.48 1.47 1.45 1.43 1.39 1.39 1.45 1.44 1.38 1.30 1.22 1.11 1.08 0.98 0.92 0.88 0.92 0.98 1.06 1.10 1.15 1.19 1.22
0.19 0.25 0.36 0.67 0.74 0.74 1.36 2.39 2.32 2.56 2.63 2.32 2.01 1.83 1.71 1.42 1.31 1.31 1.24 1.19 1.13 1.14 1.19 1.26 1.26 1.25 1.30 1.22 1.12 1.13 1.12 1.12 1.17 1.19 1.09 1.03 1.02 0.95 0.88 0.77 0.73 0.73 0.77 0.83 0.88 0.93 0.97 1.07 1.09